Observation data for Stratford on 12/13/2019      Previous  Date       Current Mesonet Observations  Soil Data  Daily Summary Page  Observations in Plain Language
KST4 130600Z 26008KT M02/M06 A2998 RMK A01 T10211055  RH  077%=      5-min Rain = 0
KST4 130601Z 26008KT M02/M06 A2998 RMK A01 T10211055  RH  078%=      5-min Rain = 0
KST4 130602Z 26008KT M02/M06 A2998 RMK A01 T10211055  RH  078%=      5-min Rain = 0
KST4 130603Z 26008KT M02/M06 A2998 RMK A01 T10211055  RH  078%=      5-min Rain = 0
KST4 130604Z 26008KT M02/M06 A2998 RMK A01 T10221055  RH  078%=      5-min Rain = 0
KST4 130605Z 26008KT M02/M06 A2998 RMK A01 T10221055  RH  078%=      5-min Rain = 0
KST4 130606Z 26008KT M02/M06 A2997 RMK A01 T10221055  RH  078%=      5-min Rain = 0
KST4 130607Z 26008KT M02/M05 A2997 RMK A01 T10211054  RH  078%=      5-min Rain = 0
KST4 130608Z 26008KT M02/M06 A2997 RMK A01 T10211055  RH  077%=      5-min Rain = 0
KST4 130609Z 26008KT M02/M06 A2997 RMK A01 T10201055  RH  077%=      5-min Rain = 0
KST4 130610Z 26008KT M02/M06 A2997 RMK A01 T10211056  RH  077%=      5-min Rain = 0
KST4 130611Z 26008KT M02/M06 A2997 RMK A01 T10201056  RH  077%=      5-min Rain = 0
KST4 130612Z 26008KT M02/M06 A2997 RMK A01 T10201056  RH  077%=      5-min Rain = 0
KST4 130613Z 26008KT M02/M06 A2997 RMK A01 T10211056  RH  077%=      5-min Rain = 0
KST4 130614Z 26009KT M02/M06 A2997 RMK A01 T10211057  RH  077%=      5-min Rain = 0
KST4 130615Z 26009KT M02/M06 A2997 RMK A01 T10221057  RH  076%=      5-min Rain = 0
KST4 130616Z 26009KT M02/M06 A2997 RMK A01 T10221057  RH  077%=      5-min Rain = 0
KST4 130617Z 26009KT M02/M06 A2997 RMK A01 T10221057  RH  077%=      5-min Rain = 0
KST4 130618Z 26009KT M02/M06 A2997 RMK A01 T10221057  RH  077%=      5-min Rain = 0
KST4 130619Z 26009KT M02/M06 A2997 RMK A01 T10221057  RH  077%=      5-min Rain = 0
KST4 130620Z 26009KT M02/M06 A2997 RMK A01 T10211057  RH  077%=      5-min Rain = 0
KST4 130621Z 26009KT M02/M06 A2997 RMK A01 T10211056  RH  077%=      5-min Rain = 0
KST4 130622Z 26009KT M02/M06 A2997 RMK A01 T10211056  RH  077%=      5-min Rain = 0
KST4 130623Z 26008KT M02/M06 A2997 RMK A01 T10211056  RH  077%=      5-min Rain = 0
KST4 130624Z 26009KT M02/M06 A2997 RMK A01 T10221057  RH  077%=      5-min Rain = 0
KST4 130625Z 26009KT M02/M06 A2997 RMK A01 T10221057  RH  077%=      5-min Rain = 0
KST4 130626Z 26009KT M02/M06 A2997 RMK A01 T10231057  RH  077%=      5-min Rain = 0
KST4 130627Z 26009KT M02/M06 A2997 RMK A01 T10231057  RH  077%=      5-min Rain = 0
KST4 130628Z 25009KT M02/M06 A2997 RMK A01 T10241057  RH  078%=      5-min Rain = 0
KST4 130629Z 26009KT M02/M06 A2997 RMK A01 T10241058  RH  078%=      5-min Rain = 0
KST4 130630Z 26009KT M03/M06 A2997 RMK A01 T10251058  RH  078%=      5-min Rain = 0
KST4 130631Z 26009KT M03/M06 A2997 RMK A01 T10251058  RH  078%=      5-min Rain = 0
KST4 130632Z 26009KT M03/M06 A2997 RMK A01 T10261059  RH  078%=      5-min Rain = 0
KST4 130633Z 26009KT M03/M06 A2997 RMK A01 T10261059  RH  078%=      5-min Rain = 0
KST4 130634Z 26008KT M03/M06 A2997 RMK A01 T10261059  RH  078%=      5-min Rain = 0
KST4 130635Z 26008KT M03/M06 A2997 RMK A01 T10261059  RH  078%=      5-min Rain = 0
KST4 130636Z 26008KT M03/M06 A2997 RMK A01 T10261058  RH  078%=      5-min Rain = 0
KST4 130637Z 26008KT M03/M06 A2997 RMK A01 T10251057  RH  078%=      5-min Rain = 0
KST4 130638Z 26008KT M02/M06 A2997 RMK A01 T10241057  RH  078%=      5-min Rain = 0
KST4 130639Z 26008KT M02/M06 A2997 RMK A01 T10231057  RH  078%=      5-min Rain = 0
KST4 130640Z 26009KT M02/M06 A2997 RMK A01 T10231057  RH  077%=      5-min Rain = 0
KST4 130641Z 26009KT M02/M06 A2997 RMK A01 T10221057  RH  077%=      5-min Rain = 0
KST4 130642Z 26009KT M02/M06 A2997 RMK A01 T10221057  RH  077%=      5-min Rain = 0
KST4 130643Z 26009KT M02/M06 A2997 RMK A01 T10211057  RH  077%=      5-min Rain = 0
KST4 130644Z 26009KT M02/M06 A2996 RMK A01 T10211057  RH  077%=      5-min Rain = 0
KST4 130645Z 26008KT M02/M06 A2996 RMK A01 T10201056  RH  076%=      5-min Rain = 0
KST4 130646Z 26009KT M02/M06 A2996 RMK A01 T10191056  RH  076%=      5-min Rain = 0
KST4 130647Z 26010KT M02/M06 A2996 RMK A01 T10191056  RH  076%=      5-min Rain = 0
KST4 130648Z 26009KT M02/M06 A2996 RMK A01 T10181056  RH  076%=      5-min Rain = 0
KST4 130649Z 26010KT M02/M06 A2996 RMK A01 T10171056  RH  075%=      5-min Rain = 0
KST4 130650Z 26010KT M02/M06 A2996 RMK A01 T10161055  RH  075%=      5-min Rain = 0
KST4 130651Z 26009KT M02/M06 A2996 RMK A01 T10161055  RH  075%=      5-min Rain = 0
KST4 130652Z 26009KT M02/M06 A2996 RMK A01 T10151055  RH  074%=      5-min Rain = 0
KST4 130653Z 26009KT M02/M06 A2996 RMK A01 T10151055  RH  074%=      5-min Rain = 0
KST4 130654Z 26009KT M01/M06 A2996 RMK A01 T10141055  RH  074%=      5-min Rain = 0
KST4 130655Z 26009KT M01/M06 A2996 RMK A01 T10141055  RH  074%=      5-min Rain = 0
KST4 130656Z 27009KT M01/M06 A2996 RMK A01 T10141055  RH  074%=      5-min Rain = 0
KST4 130657Z 26009KT M01/M05 A2996 RMK A01 T10141054  RH  074%=      5-min Rain = 0
KST4 130658Z 27009KT M01/M05 A2996 RMK A01 T10141054  RH  074%=      5-min Rain = 0
KST4 130659Z 27009KT M01/M05 A2995 RMK A01 T10141054  RH  074%=      5-min Rain = 0
KST4 130700Z 26009KT M01/M05 A2995 RMK A01 T10121053  RH  074%=      5-min Rain = 0
KST4 130701Z 27010KT M01/M05 A2995 RMK A01 T10111053  RH  073%=      5-min Rain = 0
KST4 130702Z 26009KT M01/M05 A2995 RMK A01 T10091052  RH  072%=      5-min Rain = 0
KST4 130703Z 27009KT M01/M05 A2995 RMK A01 T10071052  RH  071%=      5-min Rain = 0
KST4 130704Z 26010KT M01/M05 A2995 RMK A01 T10061053  RH  071%=      5-min Rain = 0
KST4 130705Z 27009KT M01/M05 A2995 RMK A01 T10061053  RH  070%=      5-min Rain = 0
KST4 130706Z 27009KT M01/M05 A2995 RMK A01 T10051053  RH  070%=      5-min Rain = 0
KST4 130707Z 27009KT M01/M05 A2995 RMK A01 T10051052  RH  070%=      5-min Rain = 0
KST4 130708Z 27009KT M00/M05 A2995 RMK A01 T10041053  RH  070%=      5-min Rain = 0
KST4 130709Z 27009KT M00/M05 A2995 RMK A01 T10041053  RH  069%=      5-min Rain = 0
KST4 130710Z 27008KT M00/M05 A2994 RMK A01 T10041054  RH  069%=      5-min Rain = 0
KST4 130711Z 27008KT M00/M05 A2994 RMK A01 T10041054  RH  069%=      5-min Rain = 0
KST4 130712Z 26009KT M00/M05 A2994 RMK A01 T10041054  RH  069%=      5-min Rain = 0
KST4 130713Z 26009KT M00/M05 A2994 RMK A01 T10041054  RH  069%=      5-min Rain = 0
KST4 130714Z 26009KT M00/M05 A2994 RMK A01 T10031053  RH  069%=      5-min Rain = 0
KST4 130715Z 26009KT M00/M05 A2994 RMK A01 T10031053  RH  069%=      5-min Rain = 0
KST4 130716Z 26009KT M00/M05 A2994 RMK A01 T10031053  RH  069%=      5-min Rain = 0
KST4 130717Z 26009KT M00/M05 A2994 RMK A01 T10031053  RH  069%=      5-min Rain = 0
KST4 130718Z 26010KT M00/M05 A2994 RMK A01 T10031053  RH  069%=      5-min Rain = 0
KST4 130719Z 26009KT M00/M05 A2994 RMK A01 T10041052  RH  070%=      5-min Rain = 0
KST4 130720Z 26010KT M00/M05 A2994 RMK A01 T10041052  RH  070%=      5-min Rain = 0
KST4 130721Z 26010KT M00/M05 A2994 RMK A01 T10041052  RH  070%=      5-min Rain = 0
KST4 130722Z 26010KT M00/M05 A2994 RMK A01 T10031052  RH  070%=      5-min Rain = 0
KST4 130723Z 26010KT M00/M05 A2994 RMK A01 T10021051  RH  069%=      5-min Rain = 0
KST4 130724Z 26010KT 00/05 A2994 RMK A01 T00-00-50  RH  069%=      5-min Rain = 0
KST4 130725Z 26011KT 00/M05 A2994 RMK A01 T00011050  RH  069%=      5-min Rain = 0
KST4 130726Z 26010KT 00/M05 A2994 RMK A01 T00021051  RH  068%=      5-min Rain = 0
KST4 130727Z 26010KT 00/M05 A2994 RMK A01 T00021051  RH  068%=      5-min Rain = 0
KST4 130728Z 26010KT 00/M05 A2993 RMK A01 T00021050  RH  068%=      5-min Rain = 0
KST4 130729Z 26010KT 00/M05 A2993 RMK A01 T00021050  RH  068%=      5-min Rain = 0
KST4 130730Z 27009KT 00/M05 A2993 RMK A01 T00021050  RH  068%=      5-min Rain = 0
KST4 130731Z 27010KT 00/M05 A2993 RMK A01 T00031050  RH  068%=      5-min Rain = 0
KST4 130732Z 27010KT 00/M05 A2993 RMK A01 T00041049  RH  067%=      5-min Rain = 0
KST4 130733Z 27010KT 01/M05 A2993 RMK A01 T00051049  RH  067%=      5-min Rain = 0
KST4 130734Z 27010KT 01/M05 A2993 RMK A01 T00071049  RH  066%=      5-min Rain = 0
KST4 130735Z 27010KT 01/M05 A2993 RMK A01 T00081048  RH  066%=      5-min Rain = 0
KST4 130736Z 27010KT 01/M05 A2993 RMK A01 T00071049  RH  066%=      5-min Rain = 0
KST4 130737Z 27010KT 01/M05 A2993 RMK A01 T00081049  RH  066%=      5-min Rain = 0
KST4 130738Z 27010KT 01/M05 A2993 RMK A01 T00081050  RH  065%=      5-min Rain = 0
KST4 130739Z 27010KT 01/M05 A2993 RMK A01 T00091050  RH  065%=      5-min Rain = 0
KST4 130740Z 27010KT 01/M05 A2993 RMK A01 T00091050  RH  065%=      5-min Rain = 0
KST4 130741Z 27010KT 01/M05 A2993 RMK A01 T00091050  RH  065%=      5-min Rain = 0
KST4 130742Z 27010KT 01/M05 A2993 RMK A01 T00091050  RH  065%=      5-min Rain = 0
KST4 130743Z 27010KT 01/M05 A2993 RMK A01 T00081050  RH  065%=      5-min Rain = 0
KST4 130744Z 27009KT 01/M05 A2993 RMK A01 T00081050  RH  065%=      5-min Rain = 0
KST4 130745Z 26009KT 01/M05 A2993 RMK A01 T00071050  RH  066%=      5-min Rain = 0
KST4 130746Z 26009KT 01/M05 A2993 RMK A01 T00071050  RH  066%=      5-min Rain = 0
KST4 130747Z 27009KT 01/M05 A2993 RMK A01 T00061049  RH  066%=      5-min Rain = 0
KST4 130748Z 27008KT 01/M05 A2993 RMK A01 T00051050  RH  067%=      5-min Rain = 0
KST4 130749Z 27008KT 00/M05 A2993 RMK A01 T00041050  RH  067%=      5-min Rain = 0
KST4 130750Z 27008KT 00/M05 A2993 RMK A01 T00031050  RH  068%=      5-min Rain = 0
KST4 130751Z 26008KT 00/M05 A2993 RMK A01 T00011051  RH  068%=      5-min Rain = 0
KST4 130752Z 26008KT 00/05 A2993 RMK A01 T00-00-51  RH  069%=      5-min Rain = 0
KST4 130753Z 27008KT M00/M05 A2993 RMK A01 T10011050  RH  069%=      5-min Rain = 0
KST4 130754Z 27008KT M00/M05 A2993 RMK A01 T10021050  RH  070%=      5-min Rain = 0
KST4 130755Z 27008KT M00/M05 A2993 RMK A01 T10031050  RH  070%=      5-min Rain = 0
KST4 130756Z 27008KT M00/M05 A2993 RMK A01 T10041051  RH  071%=      5-min Rain = 0
KST4 130757Z 27008KT M01/M05 A2993 RMK A01 T10051051  RH  071%=      5-min Rain = 0
KST4 130758Z 26009KT M01/M05 A2993 RMK A01 T10051051  RH  071%=      5-min Rain = 0
KST4 130759Z 26009KT M01/M05 A2993 RMK A01 T10061052  RH  071%=      5-min Rain = 0
KST4 130800Z 27008KT M01/M05 A2993 RMK A01 T10071051  RH  072%=      5-min Rain = 0
KST4 130801Z 27007KT M01/M05 A2993 RMK A01 T10061051  RH  072%=      5-min Rain = 0
KST4 130802Z 27008KT M01/M05 A2993 RMK A01 T10061050  RH  072%=      5-min Rain = 0
KST4 130803Z 27007KT M01/M05 A2993 RMK A01 T10051050  RH  072%=      5-min Rain = 0
KST4 130804Z 26008KT M01/M05 A2993 RMK A01 T10061051  RH  072%=      5-min Rain = 0
KST4 130805Z 26009KT M01/M05 A2993 RMK A01 T10061051  RH  071%=      5-min Rain = 0
KST4 130806Z 26009KT M01/M05 A2993 RMK A01 T10061052  RH  071%=      5-min Rain = 0
KST4 130807Z 27009KT M01/M05 A2993 RMK A01 T10071052  RH  071%=      5-min Rain = 0
KST4 130808Z 27008KT M01/M05 A2993 RMK A01 T10071052  RH  072%=      5-min Rain = 0
KST4 130809Z 26009KT M01/M05 A2993 RMK A01 T10071051  RH  072%=      5-min Rain = 0
KST4 130810Z 26010KT M01/M05 A2992 RMK A01 T10061050  RH  072%=      5-min Rain = 0
KST4 130811Z 26010KT M00/M05 A2992 RMK A01 T10041049  RH  071%=      5-min Rain = 0
KST4 130812Z 26010KT M00/M05 A2992 RMK A01 T10021049  RH  071%=      5-min Rain = 0
KST4 130813Z 26010KT 00/05 A2992 RMK A01 T00-00-49  RH  070%=      5-min Rain = 0
KST4 130814Z 26010KT 00/M05 A2992 RMK A01 T00011049  RH  069%=      5-min Rain = 0
KST4 130815Z 26010KT 00/M05 A2992 RMK A01 T00011049  RH  069%=      5-min Rain = 0
KST4 130816Z 27010KT 00/M05 A2992 RMK A01 T00011050  RH  069%=      5-min Rain = 0
KST4 130817Z 27010KT 00/M05 A2992 RMK A01 T00011050  RH  068%=      5-min Rain = 0
KST4 130818Z 27009KT 00/M05 A2992 RMK A01 T00021050  RH  068%=      5-min Rain = 0
KST4 130819Z 26010KT 00/M05 A2992 RMK A01 T00021050  RH  068%=      5-min Rain = 0
KST4 130820Z 26010KT 00/M05 A2992 RMK A01 T00021050  RH  068%=      5-min Rain = 0
KST4 130821Z 26010KT 00/M05 A2992 RMK A01 T00011051  RH  068%=      5-min Rain = 0
KST4 130822Z 26010KT 00/05 A2992 RMK A01 T00-00-51  RH  068%=      5-min Rain = 0
KST4 130823Z 26010KT M00/M05 A2992 RMK A01 T10011052  RH  069%=      5-min Rain = 0
KST4 130824Z 26011KT M00/M05 A2992 RMK A01 T10021052  RH  069%=      5-min Rain = 0
KST4 130825Z 26011KT M00/M05 A2992 RMK A01 T10031053  RH  069%=      5-min Rain = 0
KST4 130826Z 26010KT M00/M05 A2992 RMK A01 T10041053  RH  069%=      5-min Rain = 0
KST4 130827Z 26011KT M01/M05 A2992 RMK A01 T10051054  RH  070%=      5-min Rain = 0
KST4 130828Z 27010KT M01/M05 A2992 RMK A01 T10061054  RH  070%=      5-min Rain = 0
KST4 130829Z 26010KT M01/M05 A2992 RMK A01 T10071054  RH  071%=      5-min Rain = 0
KST4 130830Z 26010KT M01/M06 A2992 RMK A01 T10081055  RH  071%=      5-min Rain = 0
KST4 130831Z 26010KT M01/M06 A2992 RMK A01 T10091055  RH  071%=      5-min Rain = 0
KST4 130832Z 27010KT M01/M06 A2992 RMK A01 T10101055  RH  072%=      5-min Rain = 0
KST4 130833Z 26011KT M01/M06 A2992 RMK A01 T10101055  RH  072%=      5-min Rain = 0
KST4 130834Z 26010KT M01/M06 A2992 RMK A01 T10101055  RH  072%=      5-min Rain = 0
KST4 130835Z 27010KT M01/M06 A2992 RMK A01 T10101055  RH  071%=      5-min Rain = 0
KST4 130836Z 27010KT M01/M06 A2992 RMK A01 T10101055  RH  072%=      5-min Rain = 0
KST4 130837Z 26011KT M01/M06 A2992 RMK A01 T10111055  RH  072%=      5-min Rain = 0
KST4 130838Z 27011KT M01/M06 A2992 RMK A01 T10101055  RH  072%=      5-min Rain = 0
KST4 130839Z 26011KT M01/M05 A2992 RMK A01 T10091054  RH  071%=      5-min Rain = 0
KST4 130840Z 27012KT M01/M05 A2992 RMK A01 T10081054  RH  071%=      5-min Rain = 0
KST4 130841Z 27010KT M01/M05 A2992 RMK A01 T10061053  RH  070%=      5-min Rain = 0
KST4 130842Z 26011KT M00/M05 A2992 RMK A01 T10041053  RH  070%=      5-min Rain = 0
KST4 130843Z 26011KT M00/M05 A2992 RMK A01 T10041054  RH  069%=      5-min Rain = 0
KST4 130844Z 26012KT M00/M05 A2992 RMK A01 T10041054  RH  069%=      5-min Rain = 0
KST4 130845Z 26011KT M00/M05 A2992 RMK A01 T10031053  RH  069%=      5-min Rain = 0
KST4 130846Z 26011KT M00/M05 A2992 RMK A01 T10031052  RH  069%=      5-min Rain = 0
KST4 130847Z 26011KT M00/M05 A2992 RMK A01 T10031052  RH  069%=      5-min Rain = 0
KST4 130848Z 26011KT M00/M05 A2992 RMK A01 T10041053  RH  070%=      5-min Rain = 0
KST4 130849Z 26012KT M00/M05 A2992 RMK A01 T10041052  RH  070%=      5-min Rain = 0
KST4 130850Z 26011KT M01/M05 A2992 RMK A01 T10051053  RH  070%=      5-min Rain = 0
KST4 130851Z 26012KT M01/M05 A2992 RMK A01 T10051052  RH  070%=      5-min Rain = 0
KST4 130852Z 26012KT M01/M05 A2992 RMK A01 T10051053  RH  070%=      5-min Rain = 0
KST4 130853Z 26011KT M01/M05 A2992 RMK A01 T10051053  RH  070%=      5-min Rain = 0
KST4 130854Z 26012KT M01/M05 A2992 RMK A01 T10051053  RH  070%=      5-min Rain = 0
KST4 130855Z 26012KT M01/M05 A2992 RMK A01 T10061053  RH  070%=      5-min Rain = 0
KST4 130856Z 26012KT M01/M05 A2992 RMK A01 T10061053  RH  070%=      5-min Rain = 0
KST4 130857Z 26011KT M01/M05 A2992 RMK A01 T10071054  RH  071%=      5-min Rain = 0
KST4 130858Z 26010KT M01/M05 A2992 RMK A01 T10081054  RH  071%=      5-min Rain = 0
KST4 130859Z 26012KT M01/M05 A2992 RMK A01 T10091054  RH  071%=      5-min Rain = 0
KST4 130900Z 26011KT M01/M05 A2992 RMK A01 T10091054  RH  071%=      5-min Rain = 0
KST4 130901Z 26011KT M01/M06 A2992 RMK A01 T10101055  RH  072%=      5-min Rain = 0
KST4 130902Z 26010KT M01/M06 A2992 RMK A01 T10111055  RH  072%=      5-min Rain = 0
KST4 130903Z 26010KT M01/M05 A2992 RMK A01 T10111054  RH  072%=      5-min Rain = 0
KST4 130904Z 27010KT M01/M05 A2992 RMK A01 T10111054  RH  072%=      5-min Rain = 0
KST4 130905Z 27010KT M01/M05 A2992 RMK A01 T10111054  RH  072%=      5-min Rain = 0
KST4 130906Z 27010KT M01/M05 A2992 RMK A01 T10111054  RH  072%=      5-min Rain = 0
KST4 130907Z 27010KT M01/M05 A2992 RMK A01 T10111054  RH  072%=      5-min Rain = 0
KST4 130908Z 27010KT M01/M06 A2992 RMK A01 T10111055  RH  072%=      5-min Rain = 0
KST4 130909Z 27011KT M01/M05 A2992 RMK A01 T10111054  RH  073%=      5-min Rain = 0
KST4 130910Z 27011KT M01/M05 A2992 RMK A01 T10111054  RH  073%=      5-min Rain = 0
KST4 130911Z 27011KT M01/M05 A2992 RMK A01 T10121054  RH  073%=      5-min Rain = 0
KST4 130912Z 27011KT M01/M06 A2992 RMK A01 T10121055  RH  072%=      5-min Rain = 0
KST4 130913Z 27011KT M01/M06 A2992 RMK A01 T10121055  RH  072%=      5-min Rain = 0
KST4 130914Z 27011KT M01/M06 A2992 RMK A01 T10111055  RH  072%=      5-min Rain = 0
KST4 130915Z 27010KT M01/M06 A2992 RMK A01 T10111055  RH  072%=      5-min Rain = 0
KST4 130916Z 27010KT M01/M06 A2992 RMK A01 T10111055  RH  072%=      5-min Rain = 0
KST4 130917Z 27010KT M01/M06 A2992 RMK A01 T10101055  RH  072%=      5-min Rain = 0
KST4 130918Z 27010KT M01/M06 A2991 RMK A01 T10101055  RH  071%=      5-min Rain = 0
KST4 130919Z 27010KT M01/M06 A2991 RMK A01 T10091055  RH  071%=      5-min Rain = 0
KST4 130920Z 27010KT M01/M06 A2991 RMK A01 T10091055  RH  071%=      5-min Rain = 0
KST4 130921Z 27010KT M01/M06 A2991 RMK A01 T10091055  RH  071%=      5-min Rain = 0
KST4 130922Z 27010KT M01/M06 A2991 RMK A01 T10091055  RH  071%=      5-min Rain = 0
KST4 130923Z 27009KT M01/M06 A2991 RMK A01 T10081055  RH  071%=      5-min Rain = 0
KST4 130924Z 27009KT M01/M06 A2991 RMK A01 T10091056  RH  070%=      5-min Rain = 0
KST4 130925Z 27009KT M01/M06 A2991 RMK A01 T10091056  RH  070%=      5-min Rain = 0
KST4 130926Z 27009KT M01/M06 A2991 RMK A01 T10091056  RH  070%=      5-min Rain = 0
KST4 130927Z 27008KT M01/M06 A2991 RMK A01 T10101057  RH  071%=      5-min Rain = 0
KST4 130928Z 28009KT M01/M06 A2991 RMK A01 T10101056  RH  071%=      5-min Rain = 0
KST4 130929Z 28009KT M01/M06 A2991 RMK A01 T10111057  RH  071%=      5-min Rain = 0
KST4 130930Z 27008KT M01/M06 A2991 RMK A01 T10111058  RH  071%=      5-min Rain = 0
KST4 130931Z 28008KT M01/M06 A2991 RMK A01 T10121057  RH  071%=      5-min Rain = 0
KST4 130932Z 28008KT M01/M06 A2992 RMK A01 T10121057  RH  072%=      5-min Rain = 0
KST4 130933Z 27008KT M01/M06 A2992 RMK A01 T10131058  RH  072%=      5-min Rain = 0
KST4 130934Z 27009KT M01/M06 A2991 RMK A01 T10131057  RH  072%=      5-min Rain = 0
KST4 130935Z 27009KT M01/M06 A2991 RMK A01 T10131057  RH  072%=      5-min Rain = 0
KST4 130936Z 26010KT M01/M06 A2991 RMK A01 T10131056  RH  073%=      5-min Rain = 0
KST4 130937Z 27009KT M01/M06 A2991 RMK A01 T10121056  RH  072%=      5-min Rain = 0
KST4 130938Z 27008KT M01/M06 A2991 RMK A01 T10111055  RH  072%=      5-min Rain = 0
KST4 130939Z 27008KT M01/M06 A2991 RMK A01 T10111056  RH  072%=      5-min Rain = 0
KST4 130940Z 27009KT M01/M06 A2991 RMK A01 T10101056  RH  071%=      5-min Rain = 0
KST4 130941Z 27009KT M01/M06 A2991 RMK A01 T10101056  RH  071%=      5-min Rain = 0
KST4 130942Z 26009KT M01/M06 A2991 RMK A01 T10101055  RH  071%=      5-min Rain = 0
KST4 130943Z 26009KT M01/M06 A2991 RMK A01 T10101055  RH  072%=      5-min Rain = 0
KST4 130944Z 27010KT M01/M06 A2991 RMK A01 T10101056  RH  071%=      5-min Rain = 0
KST4 130945Z 27010KT M01/M06 A2991 RMK A01 T10101056  RH  071%=      5-min Rain = 0
KST4 130946Z 27010KT M01/M06 A2991 RMK A01 T10091056  RH  071%=      5-min Rain = 0
KST4 130947Z 27010KT M01/M06 A2992 RMK A01 T10091056  RH  070%=      5-min Rain = 0
KST4 130948Z 27010KT M01/M06 A2992 RMK A01 T10101057  RH  070%=      5-min Rain = 0
KST4 130949Z 27009KT M01/M06 A2992 RMK A01 T10101057  RH  070%=      5-min Rain = 0
KST4 130950Z 27009KT M01/M06 A2991 RMK A01 T10101057  RH  070%=      5-min Rain = 0
KST4 130951Z 27010KT M01/M06 A2991 RMK A01 T10111058  RH  070%=      5-min Rain = 0
KST4 130952Z 27010KT M01/M06 A2992 RMK A01 T10111058  RH  071%=      5-min Rain = 0
KST4 130953Z 27010KT M01/M06 A2991 RMK A01 T10111058  RH  070%=      5-min Rain = 0
KST4 130954Z 28010KT M01/M06 A2991 RMK A01 T10111058  RH  070%=      5-min Rain = 0
KST4 130955Z 28010KT M01/M06 A2991 RMK A01 T10121059  RH  070%=      5-min Rain = 0
KST4 130956Z 27011KT M01/M06 A2991 RMK A01 T10121059  RH  070%=      5-min Rain = 0
KST4 130957Z 27010KT M01/M06 A2991 RMK A01 T10131059  RH  071%=      5-min Rain = 0
KST4 130958Z 27010KT M01/M06 A2991 RMK A01 T10131059  RH  071%=      5-min Rain = 0
KST4 130959Z 28010KT M01/M06 A2991 RMK A01 T10131059  RH  071%=      5-min Rain = 0
KST4 131000Z 28010KT M01/M06 A2991 RMK A01 T10131059  RH  071%=      5-min Rain = 0
KST4 131001Z 28010KT M01/M06 A2991 RMK A01 T10131060  RH  071%=      5-min Rain = 0
KST4 131002Z 28010KT M01/M06 A2992 RMK A01 T10141060  RH  071%=      5-min Rain = 0
KST4 131003Z 28010KT M01/M06 A2992 RMK A01 T10141060  RH  071%=      5-min Rain = 0
KST4 131004Z 27011KT M01/M06 A2992 RMK A01 T10141060  RH  071%=      5-min Rain = 0
KST4 131005Z 28011KT M01/M06 A2992 RMK A01 T10131060  RH  071%=      5-min Rain = 0
KST4 131006Z 28011KT M01/M06 A2992 RMK A01 T10131060  RH  071%=      5-min Rain = 0
KST4 131007Z 28011KT M01/M06 A2992 RMK A01 T10131060  RH  071%=      5-min Rain = 0
KST4 131008Z 28011KT M01/M06 A2992 RMK A01 T10131060  RH  071%=      5-min Rain = 0
KST4 131009Z 28011KT M01/M06 A2992 RMK A01 T10131060  RH  070%=      5-min Rain = 0
KST4 131010Z 28011KT M01/M06 A2991 RMK A01 T10121060  RH  070%=      5-min Rain = 0
KST4 131011Z 28011KT M01/M06 A2991 RMK A01 T10111060  RH  070%=      5-min Rain = 0
KST4 131012Z 28011KT M01/M06 A2991 RMK A01 T10111060  RH  069%=      5-min Rain = 0
KST4 131013Z 28011KT M01/M06 A2991 RMK A01 T10111060  RH  069%=      5-min Rain = 0
KST4 131014Z 28011KT M01/M06 A2991 RMK A01 T10101060  RH  069%=      5-min Rain = 0
KST4 131015Z 28011KT M01/M06 A2991 RMK A01 T10101061  RH  069%=      5-min Rain = 0
KST4 131016Z 29010KT M01/M06 A2991 RMK A01 T10101060  RH  069%=      5-min Rain = 0
KST4 131017Z 29011KT M01/M06 A2991 RMK A01 T10101061  RH  068%=      5-min Rain = 0
KST4 131018Z 28011KT M01/M06 A2991 RMK A01 T10091060  RH  068%=      5-min Rain = 0
KST4 131019Z 28012KT M01/M06 A2991 RMK A01 T10091060  RH  068%=      5-min Rain = 0
KST4 131020Z 28011KT M01/M06 A2991 RMK A01 T10081060  RH  068%=      5-min Rain = 0
KST4 131021Z 29011KT M01/M06 A2991 RMK A01 T10091060  RH  068%=      5-min Rain = 0
KST4 131022Z 28010KT M01/M06 A2991 RMK A01 T10091060  RH  068%=      5-min Rain = 0
KST4 131023Z 28010KT M01/M06 A2991 RMK A01 T10081060  RH  068%=      5-min Rain = 0
KST4 131024Z 28011KT M01/M06 A2991 RMK A01 T10081060  RH  068%=      5-min Rain = 0
KST4 131025Z 28011KT M01/M06 A2991 RMK A01 T10081060  RH  068%=      5-min Rain = 0
KST4 131026Z 28011KT M01/M06 A2991 RMK A01 T10081060  RH  068%=      5-min Rain = 0
KST4 131027Z 28011KT M01/M06 A2991 RMK A01 T10081060  RH  068%=      5-min Rain = 0
KST4 131028Z 28011KT M01/M06 A2991 RMK A01 T10071060  RH  067%=      5-min Rain = 0
KST4 131029Z 28011KT M01/M06 A2991 RMK A01 T10061060  RH  067%=      5-min Rain = 0
KST4 131030Z 28010KT M01/M06 A2991 RMK A01 T10061060  RH  067%=      5-min Rain = 0
KST4 131031Z 29011KT M01/M06 A2991 RMK A01 T10061060  RH  067%=      5-min Rain = 0
KST4 131032Z 29011KT M01/M06 A2991 RMK A01 T10051060  RH  066%=      5-min Rain = 0
KST4 131033Z 29011KT M01/M06 A2991 RMK A01 T10051060  RH  066%=      5-min Rain = 0
KST4 131034Z 29010KT M00/M06 A2991 RMK A01 T10041060  RH  066%=      5-min Rain = 0
KST4 131035Z 29010KT M00/M06 A2991 RMK A01 T10031060  RH  066%=      5-min Rain = 0
KST4 131036Z 29010KT M00/M06 A2991 RMK A01 T10041060  RH  066%=      5-min Rain = 0
KST4 131037Z 29009KT M00/M06 A2991 RMK A01 T10041060  RH  066%=      5-min Rain = 0
KST4 131038Z 29010KT M00/M06 A2991 RMK A01 T10041060  RH  066%=      5-min Rain = 0
KST4 131039Z 29009KT M00/M06 A2991 RMK A01 T10041060  RH  066%=      5-min Rain = 0
KST4 131040Z 29009KT M00/M06 A2991 RMK A01 T10041061  RH  066%=      5-min Rain = 0
KST4 131041Z 29009KT M01/M06 A2991 RMK A01 T10051061  RH  066%=      5-min Rain = 0
KST4 131042Z 29009KT M01/M06 A2991 RMK A01 T10051061  RH  066%=      5-min Rain = 0
KST4 131043Z 29010KT M01/M06 A2991 RMK A01 T10061061  RH  066%=      5-min Rain = 0
KST4 131044Z 29009KT M01/M06 A2991 RMK A01 T10061061  RH  066%=      5-min Rain = 0
KST4 131045Z 29009KT M01/M06 A2991 RMK A01 T10061061  RH  066%=      5-min Rain = 0
KST4 131046Z 28009KT M01/M06 A2991 RMK A01 T10061061  RH  067%=      5-min Rain = 0
KST4 131047Z 29009KT M01/M06 A2991 RMK A01 T10071061  RH  067%=      5-min Rain = 0
KST4 131048Z 28009KT M01/M06 A2991 RMK A01 T10071061  RH  067%=      5-min Rain = 0
KST4 131049Z 28009KT M01/M06 A2991 RMK A01 T10071061  RH  066%=      5-min Rain = 0
KST4 131050Z 28009KT M01/M06 A2991 RMK A01 T10071062  RH  067%=      5-min Rain = 0
KST4 131051Z 28009KT M01/M06 A2991 RMK A01 T10081062  RH  067%=      5-min Rain = 0
KST4 131052Z 28010KT M01/M06 A2991 RMK A01 T10091062  RH  067%=      5-min Rain = 0
KST4 131053Z 28010KT M01/M06 A2991 RMK A01 T10091062  RH  067%=      5-min Rain = 0
KST4 131054Z 28010KT M01/M06 A299 RMK A01 T10091062  RH  067%=      5-min Rain = 0
KST4 131055Z 28010KT M01/M06 A299 RMK A01 T10081062  RH  067%=      5-min Rain = 0
KST4 131056Z 28010KT M01/M06 A299 RMK A01 T10071061  RH  067%=      5-min Rain = 0
KST4 131057Z 28010KT M01/M06 A299 RMK A01 T10061061  RH  066%=      5-min Rain = 0
KST4 131058Z 28010KT M01/M06 A299 RMK A01 T10051061  RH  066%=      5-min Rain = 0
KST4 131059Z 28010KT M01/M06 A299 RMK A01 T10051061  RH  066%=      5-min Rain = 0
KST4 131100Z 28010KT M01/M06 A299 RMK A01 T10051061  RH  066%=      5-min Rain = 0
KST4 131101Z 29010KT M00/M06 A299 RMK A01 T10041060  RH  066%=      5-min Rain = 0
KST4 131102Z 29010KT M00/M06 A299 RMK A01 T10031060  RH  065%=      5-min Rain = 0
KST4 131103Z 28010KT M00/M06 A299 RMK A01 T10021060  RH  065%=      5-min Rain = 0
KST4 131104Z 28009KT M00/M06 A299 RMK A01 T10021060  RH  065%=      5-min Rain = 0
KST4 131105Z 28009KT M00/M06 A299 RMK A01 T10021061  RH  065%=      5-min Rain = 0
KST4 131106Z 28009KT M00/M06 A299 RMK A01 T10031061  RH  065%=      5-min Rain = 0
KST4 131107Z 28009KT M00/M06 A299 RMK A01 T10041061  RH  065%=      5-min Rain = 0
KST4 131108Z 28009KT M00/M06 A299 RMK A01 T10041061  RH  065%=      5-min Rain = 0
KST4 131109Z 28009KT M01/M06 A299 RMK A01 T10051062  RH  065%=      5-min Rain = 0
KST4 131110Z 28010KT M01/M06 A299 RMK A01 T10051062  RH  065%=      5-min Rain = 0
KST4 131111Z 28010KT M01/M06 A299 RMK A01 T10051062  RH  065%=      5-min Rain = 0
KST4 131112Z 28010KT M01/M06 A2989 RMK A01 T10051062  RH  065%=      5-min Rain = 0
KST4 131113Z 28010KT M01/M06 A2989 RMK A01 T10051062  RH  065%=      5-min Rain = 0
KST4 131114Z 28010KT M01/M06 A2989 RMK A01 T10051062  RH  065%=      5-min Rain = 0
KST4 131115Z 28010KT M01/M06 A2989 RMK A01 T10051062  RH  066%=      5-min Rain = 0
KST4 131116Z 28010KT M01/M06 A2989 RMK A01 T10061063  RH  066%=      5-min Rain = 0
KST4 131117Z 28009KT M01/M06 A2989 RMK A01 T10071063  RH  066%=      5-min Rain = 0
KST4 131118Z 28009KT M01/M06 A2989 RMK A01 T10071063  RH  066%=      5-min Rain = 0
KST4 131119Z 28009KT M01/M06 A2989 RMK A01 T10081063  RH  066%=      5-min Rain = 0
KST4 131120Z 28009KT M01/M06 A2989 RMK A01 T10091063  RH  067%=      5-min Rain = 0
KST4 131121Z 28009KT M01/M06 A2989 RMK A01 T10101063  RH  067%=      5-min Rain = 0
KST4 131122Z 28009KT M01/M06 A2989 RMK A01 T10101063  RH  067%=      5-min Rain = 0
KST4 131123Z 28009KT M01/M06 A2989 RMK A01 T10101063  RH  067%=      5-min Rain = 0
KST4 131124Z 28009KT M01/M06 A2989 RMK A01 T10101063  RH  067%=      5-min Rain = 0
KST4 131125Z 28009KT M01/M06 A2989 RMK A01 T10111064  RH  067%=      5-min Rain = 0
KST4 131126Z 28009KT M01/M06 A2989 RMK A01 T10111064  RH  068%=      5-min Rain = 0
KST4 131127Z 28008KT M01/M06 A2989 RMK A01 T10111064  RH  068%=      5-min Rain = 0
KST4 131128Z 28009KT M01/M06 A2989 RMK A01 T10121064  RH  068%=      5-min Rain = 0
KST4 131129Z 28008KT M01/M06 A2989 RMK A01 T10111064  RH  068%=      5-min Rain = 0
KST4 131130Z 28008KT M01/M06 A2989 RMK A01 T10111064  RH  067%=      5-min Rain = 0
KST4 131131Z 28008KT M01/M06 A2989 RMK A01 T10111064  RH  067%=      5-min Rain = 0
KST4 131132Z 28008KT M01/M06 A2989 RMK A01 T10101063  RH  067%=      5-min Rain = 0
KST4 131133Z 27008KT M01/M06 A2989 RMK A01 T10111063  RH  068%=      5-min Rain = 0
KST4 131134Z 27008KT M01/M06 A2989 RMK A01 T10121062  RH  069%=      5-min Rain = 0
KST4 131135Z 27008KT M01/M06 A2989 RMK A01 T10141062  RH  069%=      5-min Rain = 0
KST4 131136Z 27008KT M02/M06 A2989 RMK A01 T10151062  RH  070%=      5-min Rain = 0
KST4 131137Z 27009KT M02/M06 A2989 RMK A01 T10151062  RH  071%=      5-min Rain = 0
KST4 131138Z 27008KT M02/M06 A2989 RMK A01 T10161061  RH  071%=      5-min Rain = 0
KST4 131139Z 27008KT M02/M06 A2989 RMK A01 T10161062  RH  071%=      5-min Rain = 0
KST4 131140Z 27008KT M02/M06 A2989 RMK A01 T10171062  RH  071%=      5-min Rain = 0
KST4 131141Z 27008KT M02/M06 A2989 RMK A01 T10171062  RH  072%=      5-min Rain = 0
KST4 131142Z 27008KT M02/M06 A2989 RMK A01 T10181062  RH  072%=      5-min Rain = 0
KST4 131143Z 27008KT M02/M06 A2989 RMK A01 T10181062  RH  072%=      5-min Rain = 0
KST4 131144Z 27007KT M02/M06 A2989 RMK A01 T10181062  RH  072%=      5-min Rain = 0
KST4 131145Z 27008KT M02/M06 A2989 RMK A01 T10191063  RH  072%=      5-min Rain = 0
KST4 131146Z 27008KT M02/M06 A2989 RMK A01 T10211064  RH  072%=      5-min Rain = 0
KST4 131147Z 27008KT M02/M06 A2989 RMK A01 T10211063  RH  073%=      5-min Rain = 0
KST4 131148Z 27008KT M02/M06 A2989 RMK A01 T10211063  RH  073%=      5-min Rain = 0
KST4 131149Z 27008KT M02/M06 A2989 RMK A01 T10221063  RH  073%=      5-min Rain = 0
KST4 131150Z 27008KT M02/M06 A2989 RMK A01 T10221064  RH  073%=      5-min Rain = 0
KST4 131151Z 27008KT M02/M06 A2989 RMK A01 T10221064  RH  073%=      5-min Rain = 0
KST4 131152Z 27008KT M02/M06 A2989 RMK A01 T10221064  RH  073%=      5-min Rain = 0
KST4 131153Z 27008KT M02/M06 A2989 RMK A01 T10221064  RH  073%=      5-min Rain = 0
KST4 131154Z 27008KT M02/M06 A2989 RMK A01 T10221064  RH  073%=      5-min Rain = 0
KST4 131155Z 27009KT M02/M06 A2989 RMK A01 T10221064  RH  073%=      5-min Rain = 0
KST4 131156Z 27009KT M02/M06 A2989 RMK A01 T10211063  RH  073%=      5-min Rain = 0
KST4 131157Z 27009KT M02/M06 A2989 RMK A01 T10201063  RH  072%=      5-min Rain = 0
KST4 131158Z 27008KT M02/M06 A2989 RMK A01 T10181063  RH  072%=      5-min Rain = 0
KST4 131159Z 27008KT M02/M06 A2989 RMK A01 T10181063  RH  071%=      5-min Rain = 0
KST4 131200Z 27008KT M02/M06 A2989 RMK A01 T10181063  RH  071%=      5-min Rain = 0
KST4 131201Z 27008KT M02/M06 A2989 RMK A01 T10181063  RH  071%=      5-min Rain = 0
KST4 131202Z 27008KT M02/M06 A2988 RMK A01 T10171063  RH  071%=      5-min Rain = 0
KST4 131203Z 28009KT M02/M06 A2988 RMK A01 T10161062  RH  071%=      5-min Rain = 0
KST4 131204Z 27009KT M02/M06 A2988 RMK A01 T10161062  RH  071%=      5-min Rain = 0
KST4 131205Z 27010KT M01/M06 A2988 RMK A01 T10141061  RH  070%=      5-min Rain = 0
KST4 131206Z 27009KT M01/M06 A2989 RMK A01 T10131061  RH  070%=      5-min Rain = 0
KST4 131207Z 27010KT M01/M06 A2989 RMK A01 T10111061  RH  069%=      5-min Rain = 0
KST4 131208Z 27010KT M01/M06 A2989 RMK A01 T10101060  RH  069%=      5-min Rain = 0
KST4 131209Z 28010KT M01/M06 A2989 RMK A01 T10091061  RH  068%=      5-min Rain = 0
KST4 131210Z 28011KT M01/M06 A2988 RMK A01 T10091061  RH  068%=      5-min Rain = 0
KST4 131211Z 28011KT M01/M06 A2988 RMK A01 T10091061  RH  068%=      5-min Rain = 0
KST4 131212Z 28010KT M01/M06 A2988 RMK A01 T10081061  RH  068%=      5-min Rain = 0
KST4 131213Z 28011KT M01/M06 A2988 RMK A01 T10071061  RH  067%=      5-min Rain = 0
KST4 131214Z 28011KT M01/M06 A2988 RMK A01 T10071061  RH  067%=      5-min Rain = 0
KST4 131215Z 28011KT M01/M06 A2988 RMK A01 T10071060  RH  067%=      5-min Rain = 0
KST4 131216Z 28011KT M01/M06 A2988 RMK A01 T10061060  RH  067%=      5-min Rain = 0
KST4 131217Z 28011KT M01/M06 A2988 RMK A01 T10051060  RH  066%=      5-min Rain = 0
KST4 131218Z 28011KT M01/M06 A2988 RMK A01 T10051060  RH  066%=      5-min Rain = 0
KST4 131219Z 28011KT M01/M06 A2988 RMK A01 T10051060  RH  066%=      5-min Rain = 0
KST4 131220Z 27010KT M01/M06 A2988 RMK A01 T10051060  RH  066%=      5-min Rain = 0
KST4 131221Z 27011KT M01/M06 A2988 RMK A01 T10051060  RH  067%=      5-min Rain = 0
KST4 131222Z 27011KT M01/M06 A2988 RMK A01 T10051059  RH  067%=      5-min Rain = 0
KST4 131223Z 27011KT M01/M06 A2988 RMK A01 T10051059  RH  067%=      5-min Rain = 0
KST4 131224Z 27010KT M01/M06 A2988 RMK A01 T10061059  RH  067%=      5-min Rain = 0
KST4 131225Z 27011KT M01/M06 A2989 RMK A01 T10061059  RH  067%=      5-min Rain = 0
KST4 131226Z 27011KT M01/M06 A2989 RMK A01 T10071059  RH  068%=      5-min Rain = 0
KST4 131227Z 27010KT M01/M06 A2989 RMK A01 T10071058  RH  068%=      5-min Rain = 0
KST4 131228Z 27010KT M01/M06 A2989 RMK A01 T10071059  RH  068%=      5-min Rain = 0
KST4 131229Z 27011KT M01/M06 A2989 RMK A01 T10071059  RH  068%=      5-min Rain = 0
KST4 131230Z 27011KT M01/M06 A2989 RMK A01 T10081059  RH  068%=      5-min Rain = 0
KST4 131231Z 27010KT M01/M06 A2989 RMK A01 T10071059  RH  068%=      5-min Rain = 0
KST4 131232Z 27010KT M01/M06 A2989 RMK A01 T10071059  RH  068%=      5-min Rain = 0
KST4 131233Z 27010KT M01/M06 A2989 RMK A01 T10071059  RH  068%=      5-min Rain = 0
KST4 131234Z 28010KT M01/M06 A2989 RMK A01 T10071058  RH  068%=      5-min Rain = 0
KST4 131235Z 28010KT M01/M06 A2989 RMK A01 T10061058  RH  068%=      5-min Rain = 0
KST4 131236Z 28010KT M01/M06 A2989 RMK A01 T10061058  RH  068%=      5-min Rain = 0
KST4 131237Z 28010KT M01/M06 A2989 RMK A01 T10061059  RH  067%=      5-min Rain = 0
KST4 131238Z 28010KT M01/M06 A2989 RMK A01 T10061060  RH  067%=      5-min Rain = 0
KST4 131239Z 28010KT M01/M06 A2989 RMK A01 T10061060  RH  067%=      5-min Rain = 0
KST4 131240Z 28010KT M01/M06 A2989 RMK A01 T10061060  RH  067%=      5-min Rain = 0
KST4 131241Z 28010KT M01/M06 A2989 RMK A01 T10061060  RH  067%=      5-min Rain = 0
KST4 131242Z 28010KT M01/M06 A2989 RMK A01 T10071060  RH  067%=      5-min Rain = 0
KST4 131243Z 28011KT M01/M06 A2989 RMK A01 T10071060  RH  067%=      5-min Rain = 0
KST4 131244Z 28010KT M01/M06 A2989 RMK A01 T10071060  RH  067%=      5-min Rain = 0
KST4 131245Z 28010KT M01/M06 A2989 RMK A01 T10071060  RH  067%=      5-min Rain = 0
KST4 131246Z 28010KT M01/M06 A2989 RMK A01 T10071059  RH  068%=      5-min Rain = 0
KST4 131247Z 28009KT M01/M06 A2989 RMK A01 T10071059  RH  068%=      5-min Rain = 0
KST4 131248Z 27010KT M01/M06 A2989 RMK A01 T10081059  RH  068%=      5-min Rain = 0
KST4 131249Z 27010KT M01/M06 A2989 RMK A01 T10081059  RH  068%=      5-min Rain = 0
KST4 131250Z 27010KT M01/M06 A2989 RMK A01 T10081059  RH  069%=      5-min Rain = 0
KST4 131251Z 27010KT M01/M06 A2989 RMK A01 T10081058  RH  069%=      5-min Rain = 0
KST4 131252Z 27010KT M01/M06 A2989 RMK A01 T10081058  RH  069%=      5-min Rain = 0
KST4 131253Z 27009KT M01/M06 A2989 RMK A01 T10091059  RH  069%=      5-min Rain = 0
KST4 131254Z 27010KT M01/M06 A2989 RMK A01 T10091059  RH  069%=      5-min Rain = 0
KST4 131255Z 27010KT M01/M06 A2989 RMK A01 T10101059  RH  069%=      5-min Rain = 0
KST4 131256Z 27009KT M01/M06 A2989 RMK A01 T10101058  RH  070%=      5-min Rain = 0
KST4 131257Z 27010KT M01/M06 A2989 RMK A01 T10111059  RH  070%=      5-min Rain = 0
KST4 131258Z 27010KT M01/M06 A2989 RMK A01 T10111059  RH  070%=      5-min Rain = 0
KST4 131259Z 27009KT M01/M06 A2989 RMK A01 T10111059  RH  070%=      5-min Rain = 0
KST4 131300Z 27009KT M01/M06 A2989 RMK A01 T10111058  RH  070%=      5-min Rain = 0
KST4 131301Z 27010KT M01/M06 A2989 RMK A01 T10111058  RH  071%=      5-min Rain = 0
KST4 131302Z 26010KT M01/M06 A2989 RMK A01 T10111057  RH  071%=      5-min Rain = 0
KST4 131303Z 26011KT M01/M06 A2989 RMK A01 T10111057  RH  071%=      5-min Rain = 0
KST4 131304Z 26010KT M01/M06 A2989 RMK A01 T10121057  RH  071%=      5-min Rain = 0
KST4 131305Z 26011KT M01/M06 A2989 RMK A01 T10141058  RH  072%=      5-min Rain = 0
KST4 131306Z 26010KT M02/M06 A299 RMK A01 T10161059  RH  072%=      5-min Rain = 0
KST4 131307Z 26010KT M02/M06 A299 RMK A01 T10191060  RH  073%=      5-min Rain = 0
KST4 131308Z 26011KT M02/M06 A299 RMK A01 T10201060  RH  074%=      5-min Rain = 0
KST4 131309Z 26010KT M02/M06 A299 RMK A01 T10201060  RH  074%=      5-min Rain = 0
KST4 131310Z 26010KT M02/M06 A299 RMK A01 T10211060  RH  075%=      5-min Rain = 0
KST4 131311Z 26009KT M02/M06 A299 RMK A01 T10211059  RH  075%=      5-min Rain = 0
KST4 131312Z 27009KT M02/M06 A299 RMK A01 T10211059  RH  075%=      5-min Rain = 0
KST4 131313Z 27008KT M02/M06 A299 RMK A01 T10201058  RH  075%=      5-min Rain = 0
KST4 131314Z 27008KT M02/M06 A299 RMK A01 T10201059  RH  075%=      5-min Rain = 0
KST4 131315Z 27008KT M02/M06 A299 RMK A01 T10191059  RH  074%=      5-min Rain = 0
KST4 131316Z 27008KT M02/M06 A299 RMK A01 T10181059  RH  074%=      5-min Rain = 0
KST4 131317Z 27008KT M02/M06 A299 RMK A01 T10171058  RH  073%=      5-min Rain = 0
KST4 131318Z 27008KT M02/M06 A299 RMK A01 T10161059  RH  073%=      5-min Rain = 0
KST4 131319Z 27008KT M02/M06 A299 RMK A01 T10151059  RH  072%=      5-min Rain = 0
KST4 131320Z 27008KT M02/M06 A299 RMK A01 T10151059  RH  072%=      5-min Rain = 0
KST4 131321Z 27008KT M02/M06 A299 RMK A01 T10151059  RH  072%=      5-min Rain = 0
KST4 131322Z 27008KT M02/M06 A299 RMK A01 T10151059  RH  072%=      5-min Rain = 0
KST4 131323Z 27007KT M02/M06 A299 RMK A01 T10151059  RH  072%=      5-min Rain = 0
KST4 131324Z 27008KT M02/M06 A299 RMK A01 T10151058  RH  072%=      5-min Rain = 0
KST4 131325Z 27007KT M02/M06 A299 RMK A01 T10151058  RH  073%=      5-min Rain = 0
KST4 131326Z 26008KT M02/M06 A299 RMK A01 T10161057  RH  073%=      5-min Rain = 0
KST4 131327Z 26008KT M02/M06 A299 RMK A01 T10161057  RH  074%=      5-min Rain = 0
KST4 131328Z 26008KT M02/M06 A299 RMK A01 T10171057  RH  074%=      5-min Rain = 0
KST4 131329Z 26008KT M02/M06 A299 RMK A01 T10171057  RH  074%=      5-min Rain = 0
KST4 131330Z 26008KT M02/M06 A299 RMK A01 T10171057  RH  074%=      5-min Rain = 0
KST4 131331Z 26008KT M02/M06 A299 RMK A01 T10181057  RH  074%=      5-min Rain = 0
KST4 131332Z 27008KT M02/M06 A299 RMK A01 T10191058  RH  075%=      5-min Rain = 0
KST4 131333Z 26008KT M02/M06 A299 RMK A01 T10191058  RH  075%=      5-min Rain = 0
KST4 131334Z 27008KT M02/M06 A299 RMK A01 T10181058  RH  075%=      5-min Rain = 0
KST4 131335Z 27008KT M02/M06 A299 RMK A01 T10191058  RH  074%=      5-min Rain = 0
KST4 131336Z 27008KT M02/M06 A299 RMK A01 T10181058  RH  074%=      5-min Rain = 0
KST4 131337Z 27009KT M02/M06 A299 RMK A01 T10181058  RH  074%=      5-min Rain = 0
KST4 131338Z 27009KT M02/M06 A299 RMK A01 T10181059  RH  074%=      5-min Rain = 0
KST4 131339Z 28010KT M02/M06 A2991 RMK A01 T10171059  RH  073%=      5-min Rain = 0
KST4 131340Z 28010KT M02/M06 A2991 RMK A01 T10171059  RH  073%=      5-min Rain = 0
KST4 131341Z 28009KT M02/M06 A2991 RMK A01 T10171059  RH  073%=      5-min Rain = 0
KST4 131342Z 28009KT M02/M06 A2991 RMK A01 T10171060  RH  073%=      5-min Rain = 0
KST4 131343Z 28009KT M02/M06 A2991 RMK A01 T10171060  RH  072%=      5-min Rain = 0
KST4 131344Z 28009KT M02/M06 A2991 RMK A01 T10161060  RH  072%=      5-min Rain = 0
KST4 131345Z 27009KT M02/M06 A2991 RMK A01 T10161059  RH  072%=      5-min Rain = 0
KST4 131346Z 28009KT M02/M06 A2991 RMK A01 T10161059  RH  072%=      5-min Rain = 0
KST4 131347Z 28009KT M02/M06 A2991 RMK A01 T10161059  RH  073%=      5-min Rain = 0
KST4 131348Z 28009KT M02/M06 A2991 RMK A01 T10161059  RH  072%=      5-min Rain = 0
KST4 131349Z 28009KT M02/M06 A2991 RMK A01 T10151059  RH  072%=      5-min Rain = 0
KST4 131350Z 28009KT M01/M06 A2991 RMK A01 T10141058  RH  072%=      5-min Rain = 0
KST4 131351Z 28008KT M01/M06 A2991 RMK A01 T10131058  RH  072%=      5-min Rain = 0
KST4 131352Z 28009KT M01/M06 A2991 RMK A01 T10131059  RH  071%=      5-min Rain = 0
KST4 131353Z 28009KT M01/M06 A2991 RMK A01 T10131059  RH  071%=      5-min Rain = 0
KST4 131354Z 28008KT M01/M06 A2991 RMK A01 T10131059  RH  071%=      5-min Rain = 0
KST4 131355Z 28008KT M01/M06 A2991 RMK A01 T10121059  RH  071%=      5-min Rain = 0
KST4 131356Z 28008KT M01/M06 A2991 RMK A01 T10121059  RH  071%=      5-min Rain = 0
KST4 131357Z 28009KT M01/M06 A2991 RMK A01 T10121059  RH  070%=      5-min Rain = 0
KST4 131358Z 28008KT M01/M06 A2991 RMK A01 T10121059  RH  070%=      5-min Rain = 0
KST4 131359Z 28009KT M01/M06 A2991 RMK A01 T10121059  RH  070%=      5-min Rain = 0
KST4 131400Z 28009KT M01/M06 A2991 RMK A01 T10121059  RH  071%=      5-min Rain = 0
KST4 131401Z 28009KT M01/M06 A2991 RMK A01 T10121059  RH  071%=      5-min Rain = 0
KST4 131402Z 28009KT M01/M06 A2991 RMK A01 T10121059  RH  071%=      5-min Rain = 0
KST4 131403Z 28009KT M01/M06 A2991 RMK A01 T10121058  RH  071%=      5-min Rain = 0
KST4 131404Z 28009KT M01/M06 A2991 RMK A01 T10121058  RH  071%=      5-min Rain = 0
KST4 131405Z 28009KT M01/M06 A2991 RMK A01 T10111057  RH  071%=      5-min Rain = 0
KST4 131406Z 29009KT M01/M06 A2991 RMK A01 T10091056  RH  070%=      5-min Rain = 0
KST4 131407Z 29010KT M01/M06 A2991 RMK A01 T10091056  RH  070%=      5-min Rain = 0
KST4 131408Z 29010KT M01/M06 A2991 RMK A01 T10081057  RH  070%=      5-min Rain = 0
KST4 131409Z 29010KT M01/M06 A2991 RMK A01 T10071056  RH  070%=      5-min Rain = 0
KST4 131410Z 29010KT M01/M06 A2991 RMK A01 T10071056  RH  069%=      5-min Rain = 0
KST4 131411Z 29011KT M01/M06 A2991 RMK A01 T10061056  RH  069%=      5-min Rain = 0
KST4 131412Z 29010KT M01/M06 A2991 RMK A01 T10051055  RH  069%=      5-min Rain = 0
KST4 131413Z 29010KT M00/M06 A2991 RMK A01 T10041055  RH  068%=      5-min Rain = 0
KST4 131414Z 29010KT M00/M06 A2991 RMK A01 T10021055  RH  068%=      5-min Rain = 0
KST4 131415Z 29010KT M00/M05 A2991 RMK A01 T10021054  RH  067%=      5-min Rain = 0
KST4 131416Z 29010KT M00/M05 A2991 RMK A01 T10011054  RH  067%=      5-min Rain = 0
KST4 131417Z 29011KT 00/05 A2992 RMK A01 T00-00-54  RH  067%=      5-min Rain = 0
KST4 131418Z 29011KT 00/M05 A2991 RMK A01 T00011054  RH  067%=      5-min Rain = 0
KST4 131419Z 29011KT 00/M05 A2991 RMK A01 T00021053  RH  066%=      5-min Rain = 0
KST4 131420Z 29010KT 00/M05 A2991 RMK A01 T00031053  RH  066%=      5-min Rain = 0
KST4 131421Z 29011KT 00/M05 A2991 RMK A01 T00041053  RH  066%=      5-min Rain = 0
KST4 131422Z 29011KT 01/M05 A2992 RMK A01 T00051052  RH  065%=      5-min Rain = 0
KST4 131423Z 29010KT 01/M05 A2992 RMK A01 T00061052  RH  065%=      5-min Rain = 0
KST4 131424Z 29010KT 01/M05 A2992 RMK A01 T00071052  RH  065%=      5-min Rain = 0
KST4 131425Z 30010KT 01/M05 A2992 RMK A01 T00081052  RH  064%=      5-min Rain = 0
KST4 131426Z 30010KT 01/M05 A2992 RMK A01 T00081052  RH  064%=      5-min Rain = 0
KST4 131427Z 30009KT 01/M05 A2992 RMK A01 T00091052  RH  064%=      5-min Rain = 0
KST4 131428Z 30009KT 01/M05 A2992 RMK A01 T00101051  RH  064%=      5-min Rain = 0
KST4 131429Z 30009KT 01/M05 A2992 RMK A01 T00101051  RH  063%=      5-min Rain = 0
KST4 131430Z 30009KT 01/M05 A2992 RMK A01 T00111051  RH  063%=      5-min Rain = 0
KST4 131431Z 30009KT 01/M05 A2992 RMK A01 T00121050  RH  063%=      5-min Rain = 0
KST4 131432Z 29009KT 01/M05 A2992 RMK A01 T00131049  RH  063%=      5-min Rain = 0
KST4 131433Z 30009KT 02/M05 A2992 RMK A01 T00151049  RH  063%=      5-min Rain = 0
KST4 131434Z 30009KT 02/M05 A2992 RMK A01 T00171048  RH  062%=      5-min Rain = 0
KST4 131435Z 30009KT 02/M05 A2992 RMK A01 T00191047  RH  061%=      5-min Rain = 0
KST4 131436Z 30009KT 02/M05 A2992 RMK A01 T00211047  RH  061%=      5-min Rain = 0
KST4 131437Z 30009KT 02/M05 A2992 RMK A01 T00231046  RH  060%=      5-min Rain = 0
KST4 131438Z 31009KT 03/M05 A2992 RMK A01 T00261046  RH  059%=      5-min Rain = 0
KST4 131439Z 30009KT 03/M05 A2992 RMK A01 T00271046  RH  059%=      5-min Rain = 0
KST4 131440Z 31008KT 03/M05 A2992 RMK A01 T00291045  RH  058%=      5-min Rain = 0
KST4 131441Z 30009KT 03/M05 A2992 RMK A01 T00301045  RH  058%=      5-min Rain = 0
KST4 131442Z 30009KT 03/M05 A2992 RMK A01 T00321045  RH  057%=      5-min Rain = 0
KST4 131443Z 30009KT 03/M04 A2992 RMK A01 T00331044  RH  057%=      5-min Rain = 0
KST4 131444Z 31010KT 04/M04 A2992 RMK A01 T00351044  RH  056%=      5-min Rain = 0
KST4 131445Z 30009KT 04/M04 A2992 RMK A01 T00361044  RH  056%=      5-min Rain = 0
KST4 131446Z 30009KT 04/M04 A2992 RMK A01 T00371044  RH  055%=      5-min Rain = 0
KST4 131447Z 30009KT 04/M04 A2992 RMK A01 T00391044  RH  055%=      5-min Rain = 0
KST4 131448Z 30010KT 04/M04 A2992 RMK A01 T00401043  RH  055%=      5-min Rain = 0
KST4 131449Z 31009KT 04/M04 A2992 RMK A01 T00421043  RH  054%=      5-min Rain = 0
KST4 131450Z 31010KT 04/M04 A2992 RMK A01 T00431043  RH  054%=      5-min Rain = 0
KST4 131451Z 30009KT 05/M04 A2992 RMK A01 T00451043  RH  053%=      5-min Rain = 0
KST4 131452Z 30009KT 05/M04 A2992 RMK A01 T00461043  RH  053%=      5-min Rain = 0
KST4 131453Z 30009KT 05/M04 A2992 RMK A01 T00471042  RH  052%=      5-min Rain = 0
KST4 131454Z 30009KT 05/M04 A2993 RMK A01 T00481042  RH  052%=      5-min Rain = 0
KST4 131455Z 30009KT 05/M04 A2993 RMK A01 T00501042  RH  052%=      5-min Rain = 0
KST4 131456Z 30009KT 05/M04 A2993 RMK A01 T00521041  RH  051%=      5-min Rain = 0
KST4 131457Z 30009KT 05/M04 A2993 RMK A01 T00531041  RH  051%=      5-min Rain = 0
KST4 131458Z 31009KT 05/M04 A2993 RMK A01 T00541041  RH  050%=      5-min Rain = 0
KST4 131459Z 31009KT 06/M04 A2993 RMK A01 T00561041  RH  050%=      5-min Rain = 0
KST4 131500Z 31008KT 06/M04 A2993 RMK A01 T00571041  RH  049%=      5-min Rain = 0
KST4 131501Z 31008KT 06/M04 A2992 RMK A01 T00581040  RH  049%=      5-min Rain = 0
KST4 131502Z 31008KT 06/M04 A2992 RMK A01 T00591040  RH  049%=      5-min Rain = 0
KST4 131503Z 31008KT 06/M04 A2992 RMK A01 T00601041  RH  048%=      5-min Rain = 0
KST4 131504Z 31007KT 06/M04 A2992 RMK A01 T00611041  RH  048%=      5-min Rain = 0
KST4 131505Z 31007KT 06/M04 A2992 RMK A01 T00611040  RH  048%=      5-min Rain = 0
KST4 131506Z 31008KT 06/M04 A2992 RMK A01 T00621040  RH  048%=      5-min Rain = 0
KST4 131507Z 31008KT 06/M04 A2992 RMK A01 T00621040  RH  048%=      5-min Rain = 0
KST4 131508Z 30010KT 06/M04 A2992 RMK A01 T00631040  RH  048%=      5-min Rain = 0
KST4 131509Z 31009KT 06/M04 A2992 RMK A01 T00631040  RH  048%=      5-min Rain = 0
KST4 131510Z 31010KT 06/M04 A2992 RMK A01 T00641041  RH  047%=      5-min Rain = 0
KST4 131511Z 30010KT 06/M04 A2992 RMK A01 T00641041  RH  047%=      5-min Rain = 0
KST4 131512Z 31009KT 07/M04 A2992 RMK A01 T00651040  RH  047%=      5-min Rain = 0
KST4 131513Z 31010KT 07/M04 A2992 RMK A01 T00661040  RH  047%=      5-min Rain = 0
KST4 131514Z 31010KT 07/M04 A2992 RMK A01 T00671039  RH  047%=      5-min Rain = 0
KST4 131515Z 31011KT 07/M04 A2992 RMK A01 T00671039  RH  047%=      5-min Rain = 0
KST4 131516Z 31009KT 07/M04 A2992 RMK A01 T00671039  RH  047%=      5-min Rain = 0
KST4 131517Z 31009KT 07/M04 A2992 RMK A01 T00681039  RH  046%=      5-min Rain = 0
KST4 131518Z 31010KT 07/M04 A2992 RMK A01 T00681039  RH  046%=      5-min Rain = 0
KST4 131519Z 31009KT 07/M04 A2992 RMK A01 T00681041  RH  046%=      5-min Rain = 0
KST4 131520Z 31011KT 07/M04 A2992 RMK A01 T00691040  RH  046%=      5-min Rain = 0
KST4 131521Z 31010KT 07/M04 A2992 RMK A01 T00691041  RH  045%=      5-min Rain = 0
KST4 131522Z 31011KT 07/M04 A2992 RMK A01 T00701040  RH  046%=      5-min Rain = 0
KST4 131523Z 31011KT 07/M04 A2993 RMK A01 T00711038  RH  046%=      5-min Rain = 0
KST4 131524Z 31008KT 07/M04 A2993 RMK A01 T00731037  RH  046%=      5-min Rain = 0
KST4 131525Z 31009KT 08/M04 A2993 RMK A01 T00751035  RH  046%=      5-min Rain = 0
KST4 131526Z 32009KT 08/M04 A2993 RMK A01 T00771036  RH  045%=      5-min Rain = 0
KST4 131527Z 31010KT 08/M04 A2993 RMK A01 T00781035  RH  045%=      5-min Rain = 0
KST4 131528Z 31011KT 08/M04 A2993 RMK A01 T00781036  RH  044%=      5-min Rain = 0
KST4 131529Z 32010KT 08/M04 A2993 RMK A01 T00791036  RH  044%=      5-min Rain = 0
KST4 131530Z 32011KT 08/M04 A2993 RMK A01 T00811035  RH  044%=      5-min Rain = 0
KST4 131531Z 32012KT 08/M04 A2993 RMK A01 T00831035  RH  043%=      5-min Rain = 0
KST4 131532Z 32012KT 09/M03 A2993 RMK A01 T00851034  RH  043%=      5-min Rain = 0
KST4 131533Z 32012KT 09/M03 A2993 RMK A01 T00881034  RH  042%=      5-min Rain = 0
KST4 131534Z 32012KT 09/M03 A2993 RMK A01 T00901033  RH  042%=      5-min Rain = 0
KST4 131535Z 32012KT 09/M03 A2993 RMK A01 T00921033  RH  041%=      5-min Rain = 0
KST4 131536Z 32011KT 09/M03 A2993 RMK A01 T00941032  RH  041%=      5-min Rain = 0
KST4 131537Z 32012KT 10/M03 A2993 RMK A01 T00971032  RH  040%=      5-min Rain = 0
KST4 131538Z 32011KT 10/M03 A2993 RMK A01 T00991032  RH  040%=      5-min Rain = 0
KST4 131539Z 33012KT 10/M03 A2993 RMK A01 T01021032  RH  039%=      5-min Rain = 0
KST4 131540Z 33012KT 10/M03 A2992 RMK A01 T01041032  RH  038%=      5-min Rain = 0
KST4 131541Z 33014KT 11/M03 A2992 RMK A01 T01071033  RH  037%=      5-min Rain = 0
KST4 131542Z 33014KT 11/M03 A2993 RMK A01 T01091033  RH  037%=      5-min Rain = 0
KST4 131543Z 33011KT 11/M03 A2993 RMK A01 T01091034  RH  037%=      5-min Rain = 0
KST4 131544Z 33011KT 11/M03 A2992 RMK A01 T01101032  RH  037%=      5-min Rain = 0
KST4 131545Z 33012KT 11/M03 A2992 RMK A01 T01101031  RH  037%=      5-min Rain = 0
KST4 131546Z 33013KT 11/M03 A2992 RMK A01 T01101032  RH  037%=      5-min Rain = 0
KST4 131547Z 33015KT 11/M03 A2992 RMK A01 T01101034  RH  036%=      5-min Rain = 0
KST4 131548Z 33014KT 11/M04 A2992 RMK A01 T01101035  RH  036%=      5-min Rain = 0
KST4 131549Z 33016KT 11/M04 A2992 RMK A01 T01111036  RH  036%=      5-min Rain = 0
KST4 131550Z 34012KT 11/M04 A2992 RMK A01 T01121036  RH  035%=      5-min Rain = 0
KST4 131551Z 34014KT 11/M04 A2992 RMK A01 T01131035  RH  035%=      5-min Rain = 0
KST4 131552Z 34014KT 11/M04 A2992 RMK A01 T01141035  RH  035%=      5-min Rain = 0
KST4 131553Z 34015KT 11/M04 A2992 RMK A01 T01131036  RH  035%=      5-min Rain = 0
KST4 131554Z 34013KT 11/M04 A2992 RMK A01 T01131036  RH  035%=      5-min Rain = 0
KST4 131555Z 34013KT 11/M04 A2992 RMK A01 T01131036  RH  035%=      5-min Rain = 0
KST4 131556Z 34014KT 11/M04 A2992 RMK A01 T01131036  RH  035%=      5-min Rain = 0
KST4 131557Z 34013KT 11/M04 A2993 RMK A01 T01131036  RH  035%=      5-min Rain = 0
KST4 131558Z 34013KT 11/M04 A2993 RMK A01 T01141035  RH  035%=      5-min Rain = 0
KST4 131559Z 34012KT 12/M03 A2993 RMK A01 T01161033  RH  035%=      5-min Rain = 0
KST4 131600Z 34011KT 12/M03 A2993 RMK A01 T01171033  RH  035%=      5-min Rain = 0
KST4 131601Z 34012KT 12/M03 A2993 RMK A01 T01181032  RH  035%=      5-min Rain = 0
KST4 131602Z 34015KT 12/M03 A2993 RMK A01 T01181033  RH  034%=      5-min Rain = 0
KST4 131603Z 34013KT 12/M03 A2993 RMK A01 T01181033  RH  034%=      5-min Rain = 0
KST4 131604Z 34013KT 12/M03 A2993 RMK A01 T01191033  RH  034%=      5-min Rain = 0
KST4 131605Z 34013KT 12/M03 A2993 RMK A01 T01201033  RH  034%=      5-min Rain = 0
KST4 131606Z 34013KT 12/M03 A2993 RMK A01 T01201032  RH  035%=      5-min Rain = 0
KST4 131607Z 34015KT 12/M03 A2993 RMK A01 T01221032  RH  034%=      5-min Rain = 0
KST4 131608Z 34014KT 12/M03 A2993 RMK A01 T01231033  RH  034%=      5-min Rain = 0
KST4 131609Z 35014KT 12/M03 A2993 RMK A01 T01241034  RH  033%=      5-min Rain = 0
KST4 131610Z 35014KT 12/M03 A2993 RMK A01 T01241034  RH  033%=      5-min Rain = 0
KST4 131611Z 34015KT 13/M04 A2993 RMK A01 T01251035  RH  033%=      5-min Rain = 0
KST4 131612Z 35014KT 13/M04 A2993 RMK A01 T01261035  RH  032%=      5-min Rain = 0
KST4 131613Z 34013KT 13/M04 A2993 RMK A01 T01261035  RH  032%=      5-min Rain = 0
KST4 131614Z 35011KT 13/M03 A2993 RMK A01 T01271034  RH  032%=      5-min Rain = 0
KST4 131615Z 34013KT 13/M03 A2993 RMK A01 T01291033  RH  032%=      5-min Rain = 0
KST4 131616Z 35014KT 13/M04 A2994 RMK A01 T01291035  RH  032%=      5-min Rain = 0
KST4 131617Z 35013KT 13/M03 A2994 RMK A01 T01301034  RH  032%=      5-min Rain = 0
KST4 131618Z 35015KT 13/M03 A2994 RMK A01 T01321034  RH  031%=      5-min Rain = 0
KST4 131619Z 35016KT 13/M04 A2994 RMK A01 T01311037  RH  031%=      5-min Rain = 0
KST4 131620Z 35014KT 13/M04 A2994 RMK A01 T01301037  RH  031%=      5-min Rain = 0
KST4 131621Z 36013KT 13/M04 A2994 RMK A01 T01301036  RH  031%=      5-min Rain = 0
KST4 131622Z 35011G18KT 13/M03 A2994 RMK A01 T01321034  RH  032%=      5-min Rain = 0
KST4 131623Z 35015KT 13/M03 A2994 RMK A01 T01341034  RH  031%=      5-min Rain = 0
KST4 131624Z 35016KT 13/M04 A2994 RMK A01 T01331036  RH  031%=      5-min Rain = 0
KST4 131625Z 35016KT 13/M04 A2994 RMK A01 T01321037  RH  031%=      5-min Rain = 0
KST4 131626Z 35018KT 13/M04 A2994 RMK A01 T01321037  RH  031%=      5-min Rain = 0
KST4 131627Z 00015KT 13/M04 A2994 RMK A01 T01311039  RH  030%=      5-min Rain = 0
KST4 131628Z 36016KT 13/M04 A2994 RMK A01 T01311037  RH  031%=      5-min Rain = 0
KST4 131629Z 00016KT 13/M04 A2994 RMK A01 T01311037  RH  031%=      5-min Rain = 0
KST4 131630Z 00018KT 13/M04 A2994 RMK A01 T01301038  RH  031%=      5-min Rain = 0
KST4 131631Z 00017KT 13/M04 A2993 RMK A01 T01291037  RH  031%=      5-min Rain = 0
KST4 131632Z 00015KT 13/M04 A2993 RMK A01 T01291036  RH  031%=      5-min Rain = 0
KST4 131633Z 01015KT 13/M04 A2993 RMK A01 T01301035  RH  032%=      5-min Rain = 0
KST4 131634Z 00016KT 13/M03 A2993 RMK A01 T01321034  RH  031%=      5-min Rain = 0
KST4 131635Z 36016KT 13/M03 A2993 RMK A01 T01321034  RH  031%=      5-min Rain = 0
KST4 131636Z 01015KT 13/M04 A2993 RMK A01 T01321035  RH  031%=      5-min Rain = 0
KST4 131637Z 00016KT 13/M04 A2993 RMK A01 T01311035  RH  031%=      5-min Rain = 0
KST4 131638Z 01015KT 13/M04 A2993 RMK A01 T01301036  RH  031%=      5-min Rain = 0
KST4 131639Z 01015KT 13/M04 A2993 RMK A01 T01301035  RH  032%=      5-min Rain = 0
KST4 131640Z 02014KT 13/M04 A2993 RMK A01 T01301037  RH  031%=      5-min Rain = 0
KST4 131641Z 01013KT 13/M04 A2993 RMK A01 T01311037  RH  031%=      5-min Rain = 0
KST4 131642Z 01019KT 13/M04 A2994 RMK A01 T01321039  RH  030%=      5-min Rain = 0
KST4 131643Z 01015KT 13/M04 A2994 RMK A01 T01311042  RH  030%=      5-min Rain = 0
KST4 131644Z 00016KT 13/M04 A2994 RMK A01 T01311040  RH  030%=      5-min Rain = 0
KST4 131645Z 00015G20KT 13/M04 A2994 RMK A01 T01321039  RH  030%=      5-min Rain = 0
KST4 131646Z 01018KT 13/M04 A2994 RMK A01 T01321041  RH  030%=      5-min Rain = 0
KST4 131647Z 01017KT 13/M04 A2994 RMK A01 T01311041  RH  030%=      5-min Rain = 0
KST4 131648Z 01015KT 13/M04 A2994 RMK A01 T01301042  RH  030%=      5-min Rain = 0
KST4 131649Z 01017KT 13/M04 A2994 RMK A01 T01301042  RH  030%=      5-min Rain = 0
KST4 131650Z 00017KT 13/M04 A2993 RMK A01 T01301043  RH  030%=      5-min Rain = 0
KST4 131651Z 01015KT 13/M04 A2993 RMK A01 T01301043  RH  030%=      5-min Rain = 0
KST4 131652Z 36015KT 13/M04 A2993 RMK A01 T01291043  RH  030%=      5-min Rain = 0
KST4 131653Z 01015KT 13/M04 A2993 RMK A01 T01291043  RH  030%=      5-min Rain = 0
KST4 131654Z 01012KT 13/M04 A2993 RMK A01 T01281042  RH  030%=      5-min Rain = 0
KST4 131655Z 01012G17KT 13/M04 A2993 RMK A01 T01291040  RH  031%=      5-min Rain = 0
KST4 131656Z 02013KT 13/M04 A2993 RMK A01 T01301040  RH  030%=      5-min Rain = 0
KST4 131657Z 01016KT 13/M04 A2993 RMK A01 T01301042  RH  030%=      5-min Rain = 0
KST4 131658Z 01015KT 13/M04 A2993 RMK A01 T01291042  RH  030%=      5-min Rain = 0
KST4 131659Z 01017KT 13/M04 A2993 RMK A01 T01291043  RH  030%=      5-min Rain = 0
KST4 131700Z 01016KT 13/M04 A2994 RMK A01 T01281044  RH  030%=      5-min Rain = 0
KST4 131701Z 01014KT 13/M04 A2994 RMK A01 T01281042  RH  030%=      5-min Rain = 0
KST4 131702Z 01016KT 13/M04 A2994 RMK A01 T01271043  RH  030%=      5-min Rain = 0
KST4 131703Z 02016KT 13/M04 A2994 RMK A01 T01261043  RH  031%=      5-min Rain = 0
KST4 131704Z 01016KT 13/M04 A2993 RMK A01 T01251044  RH  030%=      5-min Rain = 0
KST4 131705Z 01015KT 12/M05 A2993 RMK A01 T01241045  RH  031%=      5-min Rain = 0
KST4 131706Z 02014KT 12/M04 A2993 RMK A01 T01241044  RH  031%=      5-min Rain = 0
KST4 131707Z 02015KT 13/M04 A2993 RMK A01 T01251043  RH  031%=      5-min Rain = 0
KST4 131708Z 02016KT 13/M04 A2993 RMK A01 T01261044  RH  030%=      5-min Rain = 0
KST4 131709Z 02015KT 13/M04 A2993 RMK A01 T01271044  RH  030%=      5-min Rain = 0
KST4 131710Z 01013KT 13/M05 A2994 RMK A01 T01281045  RH  030%=      5-min Rain = 0
KST4 131711Z 01014KT 13/M04 A2993 RMK A01 T01301043  RH  030%=      5-min Rain = 0
KST4 131712Z 01014KT 13/M04 A2993 RMK A01 T01311044  RH  029%=      5-min Rain = 0
KST4 131713Z 01014KT 13/M04 A2993 RMK A01 T01301043  RH  030%=      5-min Rain = 0
KST4 131714Z 01012KT 13/M04 A2993 RMK A01 T01301043  RH  030%=      5-min Rain = 0
KST4 131715Z 02013KT 13/M04 A2993 RMK A01 T01301042  RH  030%=      5-min Rain = 0
KST4 131716Z 02012KT 13/M04 A2993 RMK A01 T01311043  RH  030%=      5-min Rain = 0
KST4 131717Z 03013KT 13/M05 A2993 RMK A01 T01301045  RH  029%=      5-min Rain = 0
KST4 131718Z 02013KT 13/M05 A2993 RMK A01 T01291046  RH  029%=      5-min Rain = 0
KST4 131719Z 02011KT 13/M05 A2992 RMK A01 T01281049  RH  029%=      5-min Rain = 0
KST4 131720Z 01011KT 13/M05 A2992 RMK A01 T01271045  RH  030%=      5-min Rain = 0
KST4 131721Z 02013KT 13/M04 A2992 RMK A01 T01281044  RH  030%=      5-min Rain = 0
KST4 131722Z 03014KT 13/M05 A2992 RMK A01 T01271045  RH  030%=      5-min Rain = 0
KST4 131723Z 02012KT 13/M05 A2992 RMK A01 T01271046  RH  030%=      5-min Rain = 0
KST4 131724Z 02012KT 13/M05 A2992 RMK A01 T01261046  RH  030%=      5-min Rain = 0
KST4 131725Z 02013KT 13/M04 A2992 RMK A01 T01261044  RH  030%=      5-min Rain = 0
KST4 131726Z 02013KT 13/M05 A2992 RMK A01 T01271046  RH  030%=      5-min Rain = 0
KST4 131727Z 02013KT 13/M05 A2992 RMK A01 T01271046  RH  030%=      5-min Rain = 0
KST4 131728Z 02013KT 13/M05 A2992 RMK A01 T01271045  RH  030%=      5-min Rain = 0
KST4 131729Z 01012KT 13/M05 A2992 RMK A01 T01261045  RH  030%=      5-min Rain = 0
KST4 131730Z 01013KT 13/M05 A2992 RMK A01 T01261045  RH  030%=      5-min Rain = 0
KST4 131731Z 03013KT 13/M05 A2992 RMK A01 T01251046  RH  030%=      5-min Rain = 0
KST4 131732Z 01012KT 13/M05 A2992 RMK A01 T01251050  RH  029%=      5-min Rain = 0
KST4 131733Z 02012KT 13/M05 A2992 RMK A01 T01251049  RH  029%=      5-min Rain = 0
KST4 131734Z 01010KT 13/M05 A2992 RMK A01 T01251048  RH  030%=      5-min Rain = 0
KST4 131735Z 01014KT 13/M04 A2992 RMK A01 T01281044  RH  030%=      5-min Rain = 0
KST4 131736Z 02011KT 13/M05 A2992 RMK A01 T01281045  RH  030%=      5-min Rain = 0
KST4 131737Z 01012KT 13/M04 A2992 RMK A01 T01291044  RH  030%=      5-min Rain = 0
KST4 131738Z 02013KT 13/M04 A2992 RMK A01 T01291044  RH  030%=      5-min Rain = 0
KST4 131739Z 03011KT 13/M05 A2992 RMK A01 T01281045  RH  030%=      5-min Rain = 0
KST4 131740Z 01009KT 13/M04 A2992 RMK A01 T01281044  RH  030%=      5-min Rain = 0
KST4 131741Z 01011KT 13/M04 A2992 RMK A01 T01281043  RH  030%=      5-min Rain = 0
KST4 131742Z 02009KT 13/M04 A2992 RMK A01 T01271043  RH  030%=      5-min Rain = 0
KST4 131743Z 03009KT 13/M04 A2992 RMK A01 T01271043  RH  030%=      5-min Rain = 0
KST4 131744Z 01010KT 13/M04 A2992 RMK A01 T01271043  RH  030%=      5-min Rain = 0
KST4 131745Z 01010KT 13/M04 A2992 RMK A01 T01271043  RH  030%=      5-min Rain = 0
KST4 131746Z 01011KT 13/M04 A2992 RMK A01 T01271044  RH  030%=      5-min Rain = 0
KST4 131747Z 00011KT 13/M04 A2992 RMK A01 T01281042  RH  030%=      5-min Rain = 0
KST4 131748Z 00010KT 13/M04 A2992 RMK A01 T01301040  RH  030%=      5-min Rain = 0
KST4 131749Z 00008KT 13/M04 A2992 RMK A01 T01311041  RH  030%=      5-min Rain = 0
KST4 131750Z 01007KT 13/M04 A2992 RMK A01 T01301041  RH  030%=      5-min Rain = 0
KST4 131751Z 01008KT 13/M04 A2992 RMK A01 T01281041  RH  030%=      5-min Rain = 0
KST4 131752Z 00009KT 13/M04 A2992 RMK A01 T01301038  RH  031%=      5-min Rain = 0
KST4 131753Z 35010KT 13/M04 A2992 RMK A01 T01321038  RH  030%=      5-min Rain = 0
KST4 131754Z 00009KT 13/M04 A2992 RMK A01 T01331040  RH  030%=      5-min Rain = 0
KST4 131755Z 00007KT 13/M04 A2992 RMK A01 T01331038  RH  030%=      5-min Rain = 0
KST4 131756Z 01006KT 14/M04 A2992 RMK A01 T01351038  RH  030%=      5-min Rain = 0
KST4 131757Z 35006KT 14/M04 A2992 RMK A01 T01361038  RH  030%=      5-min Rain = 0
KST4 131758Z 01008KT 14/M04 A2992 RMK A01 T01361037  RH  030%=      5-min Rain = 0
KST4 131759Z 00009KT 14/M04 A2991 RMK A01 T01361041  RH  029%=      5-min Rain = 0
KST4 131800Z 36008KT 13/M04 A2991 RMK A01 T01341043  RH  029%=      5-min Rain = 0
KST4 131801Z 36008KT 13/M04 A2992 RMK A01 T01331043  RH  029%=      5-min Rain = 0
KST4 131802Z 01011KT 13/M04 A2992 RMK A01 T01331041  RH  029%=      5-min Rain = 0
KST4 131803Z 02009KT 14/M04 A2992 RMK A01 T01361042  RH  029%=      5-min Rain = 0
KST4 131804Z 04007KT 14/M04 A2992 RMK A01 T01361043  RH  029%=      5-min Rain = 0
KST4 131805Z 05007KT 14/M04 A2992 RMK A01 T01361043  RH  029%=      5-min Rain = 0
KST4 131806Z 03008KT 14/M04 A2992 RMK A01 T01361043  RH  029%=      5-min Rain = 0
KST4 131807Z 03008KT 14/M04 A2992 RMK A01 T01361044  RH  028%=      5-min Rain = 0
KST4 131808Z 04007KT 13/M05 A2992 RMK A01 T01331046  RH  029%=      5-min Rain = 0
KST4 131809Z 04006KT 13/M05 A2992 RMK A01 T01311045  RH  029%=      5-min Rain = 0
KST4 131810Z 04007KT 13/M04 A2991 RMK A01 T01311044  RH  029%=      5-min Rain = 0
KST4 131811Z 02005KT 13/M04 A2991 RMK A01 T01311044  RH  029%=      5-min Rain = 0
KST4 131812Z 02007KT 13/M04 A2991 RMK A01 T01311044  RH  029%=      5-min Rain = 0
KST4 131813Z 01009KT 13/M04 A2991 RMK A01 T01311044  RH  029%=      5-min Rain = 0
KST4 131814Z 01008KT 13/M05 A2992 RMK A01 T01311046  RH  029%=      5-min Rain = 0
KST4 131815Z 01007KT 13/M04 A2992 RMK A01 T01331044  RH  029%=      5-min Rain = 0
KST4 131816Z 01006KT 14/M04 A2992 RMK A01 T01361039  RH  029%=      5-min Rain = 0
KST4 131817Z 02007KT 14/M04 A2992 RMK A01 T01381039  RH  029%=      5-min Rain = 0
KST4 131818Z 05006KT 14/M04 A2992 RMK A01 T01381039  RH  029%=      5-min Rain = 0
KST4 131819Z 05009KT 14/M04 A2992 RMK A01 T01371040  RH  029%=      5-min Rain = 0
KST4 131820Z 02008KT 14/M04 A2992 RMK A01 T01371040  RH  029%=      5-min Rain = 0
KST4 131821Z 03008KT 14/M04 A2991 RMK A01 T01371042  RH  029%=      5-min Rain = 0
KST4 131822Z 04009KT 14/M04 A2991 RMK A01 T01361042  RH  029%=      5-min Rain = 0
KST4 131823Z 05008KT 13/M04 A2991 RMK A01 T01341044  RH  029%=      5-min Rain = 0
KST4 131824Z 05008KT 13/M04 A2991 RMK A01 T01331043  RH  029%=      5-min Rain = 0
KST4 131825Z 03007KT 13/M04 A2991 RMK A01 T01331041  RH  030%=      5-min Rain = 0
KST4 131826Z 03007KT 13/M04 A2991 RMK A01 T01331042  RH  029%=      5-min Rain = 0
KST4 131827Z 03008KT 13/M04 A2991 RMK A01 T01321042  RH  030%=      5-min Rain = 0
KST4 131828Z 06007KT 13/M04 A2991 RMK A01 T01321044  RH  029%=      5-min Rain = 0
KST4 131829Z 06006KT 13/M04 A2991 RMK A01 T01311043  RH  030%=      5-min Rain = 0
KST4 131830Z 03008KT 13/M04 A2991 RMK A01 T01321040  RH  030%=      5-min Rain = 0
KST4 131831Z 01008KT 13/M04 A2991 RMK A01 T01331042  RH  030%=      5-min Rain = 0
KST4 131832Z 03007KT 13/M04 A2991 RMK A01 T01321042  RH  030%=      5-min Rain = 0
KST4 131833Z 04007KT 13/M04 A2991 RMK A01 T01321041  RH  030%=      5-min Rain = 0
KST4 131834Z 01007KT 13/M04 A2991 RMK A01 T01321042  RH  030%=      5-min Rain = 0
KST4 131835Z 02007KT 13/M04 A2991 RMK A01 T01291044  RH  030%=      5-min Rain = 0
KST4 131836Z 04007KT 13/M04 A2991 RMK A01 T01281044  RH  030%=      5-min Rain = 0
KST4 131837Z 03009KT 13/M04 A2991 RMK A01 T01261044  RH  030%=      5-min Rain = 0
KST4 131838Z 03009KT 13/M04 A2991 RMK A01 T01261044  RH  030%=      5-min Rain = 0
KST4 131839Z 04008KT 13/M04 A2991 RMK A01 T01261044  RH  030%=      5-min Rain = 0
KST4 131840Z 04008KT 13/M04 A2991 RMK A01 T01291041  RH  030%=      5-min Rain = 0
KST4 131841Z 03008KT 13/M04 A2991 RMK A01 T01321041  RH  030%=      5-min Rain = 0
KST4 131842Z 03008KT 13/M04 A2991 RMK A01 T01331043  RH  029%=      5-min Rain = 0
KST4 131843Z 03008KT 13/M04 A2991 RMK A01 T01321042  RH  030%=      5-min Rain = 0
KST4 131844Z 02008KT 13/M04 A2991 RMK A01 T01321040  RH  030%=      5-min Rain = 0
KST4 131845Z 02005KT 13/M04 A2991 RMK A01 T01311042  RH  030%=      5-min Rain = 0
KST4 131846Z 02005KT 13/M04 A2991 RMK A01 T01311040  RH  030%=      5-min Rain = 0
KST4 131847Z 05006KT 13/M04 A2991 RMK A01 T01331039  RH  030%=      5-min Rain = 0
KST4 131848Z 02007KT 13/M04 A2991 RMK A01 T01321040  RH  030%=      5-min Rain = 0
KST4 131849Z 02009KT 13/M04 A2991 RMK A01 T01311039  RH  030%=      5-min Rain = 0
KST4 131850Z 01010KT 13/M04 A2991 RMK A01 T01301039  RH  031%=      5-min Rain = 0
KST4 131851Z 00008KT 13/M04 A2991 RMK A01 T01271041  RH  031%=      5-min Rain = 0
KST4 131852Z 01008KT 13/M04 A2991 RMK A01 T01261040  RH  031%=      5-min Rain = 0
KST4 131853Z 02007KT 13/M04 A2991 RMK A01 T01261038  RH  032%=      5-min Rain = 0
KST4 131854Z 02007KT 13/M04 A2991 RMK A01 T01291035  RH  032%=      5-min Rain = 0
KST4 131855Z 04006KT 13/M03 A2991 RMK A01 T01341032  RH  032%=      5-min Rain = 0
KST4 131856Z 04006KT 14/M03 A2991 RMK A01 T01361032  RH  031%=      5-min Rain = 0
KST4 131857Z 02008KT 14/M03 A2991 RMK A01 T01391033  RH  030%=      5-min Rain = 0
KST4 131858Z 03008KT 14/M04 A2991 RMK A01 T01361037  RH  030%=      5-min Rain = 0
KST4 131859Z 04008KT 14/M03 A2991 RMK A01 T01371033  RH  031%=      5-min Rain = 0
KST4 131900Z 04008KT 14/M04 A299 RMK A01 T01371036  RH  030%=      5-min Rain = 0
KST4 131901Z 04007KT 14/M04 A299 RMK A01 T01351036  RH  030%=      5-min Rain = 0
KST4 131902Z 06006KT 14/M04 A299 RMK A01 T01351038  RH  030%=      5-min Rain = 0
KST4 131903Z 05008KT 14/M04 A299 RMK A01 T01351036  RH  030%=      5-min Rain = 0
KST4 131904Z 04008KT 14/M04 A299 RMK A01 T01361036  RH  030%=      5-min Rain = 0
KST4 131905Z 02007KT 14/M04 A299 RMK A01 T01351038  RH  030%=      5-min Rain = 0
KST4 131906Z 03003KT 14/M04 A2989 RMK A01 T01351039  RH  030%=      5-min Rain = 0
KST4 131907Z 02006KT 14/M04 A2989 RMK A01 T01351036  RH  030%=      5-min Rain = 0
KST4 131908Z 03006KT 14/M04 A2989 RMK A01 T01361037  RH  030%=      5-min Rain = 0
KST4 131909Z 03006KT 13/M04 A2989 RMK A01 T01341037  RH  030%=      5-min Rain = 0
KST4 131910Z 07007KT 13/M03 A2989 RMK A01 T01341034  RH  031%=      5-min Rain = 0
KST4 131911Z 07008KT 14/M03 A2989 RMK A01 T01361033  RH  031%=      5-min Rain = 0
KST4 131912Z 05006KT 14/M03 A2989 RMK A01 T01371034  RH  030%=      5-min Rain = 0
KST4 131913Z 07007KT 14/M03 A2989 RMK A01 T01391034  RH  030%=      5-min Rain = 0
KST4 131914Z 08006KT 14/M04 A2989 RMK A01 T01381037  RH  030%=      5-min Rain = 0
KST4 131915Z 07007KT 14/M04 A2989 RMK A01 T01381035  RH  030%=      5-min Rain = 0
KST4 131916Z 06008KT 14/M04 A2989 RMK A01 T01381036  RH  030%=      5-min Rain = 0
KST4 131917Z 06007KT 14/M04 A2989 RMK A01 T01381039  RH  029%=      5-min Rain = 0
KST4 131918Z 06007KT 14/M04 A2989 RMK A01 T01361040  RH  029%=      5-min Rain = 0
KST4 131919Z 05007KT 14/M04 A2989 RMK A01 T01371038  RH  029%=      5-min Rain = 0
KST4 131920Z 06007KT 14/M04 A2989 RMK A01 T01381038  RH  029%=      5-min Rain = 0
KST4 131921Z 06005KT 14/M04 A2988 RMK A01 T01351042  RH  029%=      5-min Rain = 0
KST4 131922Z 07004KT 13/M04 A2988 RMK A01 T01341042  RH  029%=      5-min Rain = 0
KST4 131923Z 07004KT 13/M04 A2988 RMK A01 T01341040  RH  030%=      5-min Rain = 0
KST4 131924Z 08004KT 14/M04 A2988 RMK A01 T01371036  RH  030%=      5-min Rain = 0
KST4 131925Z 02005KT 14/M04 A2988 RMK A01 T01391036  RH  030%=      5-min Rain = 0
KST4 131926Z 01005KT 14/M04 A2988 RMK A01 T01411040  RH  028%=      5-min Rain = 0
KST4 131927Z 02004KT 14/M04 A2988 RMK A01 T01411041  RH  028%=      5-min Rain = 0
KST4 131928Z 02007KT 14/M04 A2988 RMK A01 T01431037  RH  029%=      5-min Rain = 0
KST4 131929Z 03007KT 14/M04 A2988 RMK A01 T01441039  RH  028%=      5-min Rain = 0
KST4 131930Z 05004KT 14/M04 A2989 RMK A01 T01431040  RH  028%=      5-min Rain = 0
KST4 131931Z 03004KT 14/M04 A2989 RMK A01 T01391041  RH  028%=      5-min Rain = 0
KST4 131932Z 03004KT 14/M04 A2989 RMK A01 T01361042  RH  029%=      5-min Rain = 0
KST4 131933Z 03004KT 13/M04 A2989 RMK A01 T01341044  RH  029%=      5-min Rain = 0
KST4 131934Z 04007KT 13/M04 A2988 RMK A01 T01341042  RH  029%=      5-min Rain = 0
KST4 131935Z 04005KT 14/M04 A2988 RMK A01 T01361041  RH  029%=      5-min Rain = 0
KST4 131936Z 07006KT 14/M04 A2988 RMK A01 T01361041  RH  029%=      5-min Rain = 0
KST4 131937Z 07006KT 14/M04 A2988 RMK A01 T01361042  RH  029%=      5-min Rain = 0
KST4 131938Z 03007KT 14/M04 A2988 RMK A01 T01351041  RH  029%=      5-min Rain = 0
KST4 131939Z 02006KT 14/M04 A2989 RMK A01 T01351040  RH  029%=      5-min Rain = 0
KST4 131940Z 02002KT 14/M04 A2989 RMK A01 T01361041  RH  029%=      5-min Rain = 0
KST4 131941Z 02004KT 14/M04 A2989 RMK A01 T01351042  RH  029%=      5-min Rain = 0
KST4 131942Z 02002KT 14/M04 A2989 RMK A01 T01351040  RH  029%=      5-min Rain = 0
KST4 131943Z 03002KT 14/M04 A2989 RMK A01 T01361040  RH  029%=      5-min Rain = 0
KST4 131944Z 06004KT 14/M04 A2988 RMK A01 T01371039  RH  029%=      5-min Rain = 0
KST4 131945Z 07004KT 14/M04 A2988 RMK A01 T01391039  RH  029%=      5-min Rain = 0
KST4 131946Z 06003KT 14/M04 A2988 RMK A01 T01411038  RH  029%=      5-min Rain = 0
KST4 131947Z 05005KT 14/M04 A2988 RMK A01 T01421041  RH  028%=      5-min Rain = 0
KST4 131948Z 05004KT 14/M04 A2988 RMK A01 T01401041  RH  028%=      5-min Rain = 0
KST4 131949Z 07007KT 14/M04 A2988 RMK A01 T01401039  RH  029%=      5-min Rain = 0
KST4 131950Z 07005KT 14/M04 A2988 RMK A01 T01401039  RH  029%=      5-min Rain = 0
KST4 131951Z 07007KT 14/M04 A2988 RMK A01 T01401038  RH  029%=      5-min Rain = 0
KST4 131952Z 08004KT 14/M04 A2988 RMK A01 T01421038  RH  028%=      5-min Rain = 0
KST4 131953Z 10001KT 14/M04 A2988 RMK A01 T01401041  RH  028%=      5-min Rain = 0
KST4 131954Z 12002KT 14/M04 A2988 RMK A01 T01401040  RH  028%=      5-min Rain = 0
KST4 131955Z 09002KT 14/M04 A2987 RMK A01 T01421039  RH  028%=      5-min Rain = 0
KST4 131956Z 08005KT 15/M04 A2987 RMK A01 T01451037  RH  028%=      5-min Rain = 0
KST4 131957Z 05006KT 15/M04 A2987 RMK A01 T01481036  RH  028%=      5-min Rain = 0
KST4 131958Z 05006KT 15/M04 A2987 RMK A01 T01471040  RH  027%=      5-min Rain = 0
KST4 131959Z 07008KT 15/M04 A2987 RMK A01 T01461039  RH  028%=      5-min Rain = 0
KST4 132000Z 08008KT 15/M04 A2987 RMK A01 T01451038  RH  028%=      5-min Rain = 0
KST4 132001Z 06007KT 15/M04 A2987 RMK A01 T01451039  RH  028%=      5-min Rain = 0
KST4 132002Z 05008KT 14/M04 A2987 RMK A01 T01441039  RH  028%=      5-min Rain = 0
KST4 132003Z 05007KT 15/M04 A2987 RMK A01 T01451040  RH  028%=      5-min Rain = 0
KST4 132004Z 06009KT 14/M04 A2987 RMK A01 T01431041  RH  028%=      5-min Rain = 0
KST4 132005Z 06008KT 14/M04 A2987 RMK A01 T01431039  RH  028%=      5-min Rain = 0
KST4 132006Z 06007KT 15/M04 A2987 RMK A01 T01461038  RH  028%=      5-min Rain = 0
KST4 132007Z 08007KT 15/M04 A2987 RMK A01 T01491036  RH  028%=      5-min Rain = 0
KST4 132008Z 09006KT 15/M04 A2987 RMK A01 T01501038  RH  027%=      5-min Rain = 0
KST4 132009Z 06007KT 15/M04 A2987 RMK A01 T01491038  RH  027%=      5-min Rain = 0
KST4 132010Z 05006KT 15/M04 A2986 RMK A01 T01481039  RH  027%=      5-min Rain = 0
KST4 132011Z 08004KT 15/M04 A2986 RMK A01 T01461039  RH  028%=      5-min Rain = 0
KST4 132012Z 08007KT 15/M04 A2986 RMK A01 T01471036  RH  028%=      5-min Rain = 0
KST4 132013Z 09005KT 15/M04 A2986 RMK A01 T01481041  RH  027%=      5-min Rain = 0
KST4 132014Z 05008KT 15/M04 A2987 RMK A01 T01461039  RH  028%=      5-min Rain = 0
KST4 132015Z 04008KT 15/M04 A2987 RMK A01 T01481038  RH  027%=      5-min Rain = 0
KST4 132016Z 04004KT 15/M04 A2987 RMK A01 T01451041  RH  027%=      5-min Rain = 0
KST4 132017Z 07005KT 14/M04 A2986 RMK A01 T01431042  RH  028%=      5-min Rain = 0
KST4 132018Z 07004KT 14/M04 A2986 RMK A01 T01431041  RH  028%=      5-min Rain = 0
KST4 132019Z 09005KT 14/M04 A2986 RMK A01 T01431039  RH  028%=      5-min Rain = 0
KST4 132020Z 08009KT 15/M04 A2986 RMK A01 T01471036  RH  028%=      5-min Rain = 0
KST4 132021Z 08010KT 15/M04 A2986 RMK A01 T01491037  RH  028%=      5-min Rain = 0
KST4 132022Z 08009KT 15/M04 A2986 RMK A01 T01461039  RH  028%=      5-min Rain = 0
KST4 132023Z 09006KT 15/M04 A2986 RMK A01 T01451039  RH  028%=      5-min Rain = 0
KST4 132024Z 10006KT 14/M04 A2986 RMK A01 T01441038  RH  028%=      5-min Rain = 0
KST4 132025Z 10005KT 15/M04 A2986 RMK A01 T01451037  RH  028%=      5-min Rain = 0
KST4 132026Z 08008KT 15/M04 A2986 RMK A01 T01481036  RH  028%=      5-min Rain = 0
KST4 132027Z 09007KT 15/M04 A2985 RMK A01 T01491038  RH  027%=      5-min Rain = 0
KST4 132028Z 10008KT 15/M04 A2985 RMK A01 T01481038  RH  027%=      5-min Rain = 0
KST4 132029Z 09007KT 15/M04 A2986 RMK A01 T01471038  RH  028%=      5-min Rain = 0
KST4 132030Z 08007KT 15/M04 A2986 RMK A01 T01481037  RH  028%=      5-min Rain = 0
KST4 132031Z 09006KT 15/M04 A2986 RMK A01 T01481038  RH  027%=      5-min Rain = 0
KST4 132032Z 07007KT 15/M04 A2986 RMK A01 T01471039  RH  027%=      5-min Rain = 0
KST4 132033Z 09005KT 15/M04 A2986 RMK A01 T01461040  RH  027%=      5-min Rain = 0
KST4 132034Z 10005KT 15/M04 A2985 RMK A01 T01461039  RH  028%=      5-min Rain = 0
KST4 132035Z 10006KT 15/M04 A2985 RMK A01 T01471039  RH  027%=      5-min Rain = 0
KST4 132036Z 10004KT 15/M04 A2985 RMK A01 T01461040  RH  027%=      5-min Rain = 0
KST4 132037Z 07007KT 15/M04 A2986 RMK A01 T01461039  RH  028%=      5-min Rain = 0
KST4 132038Z 06008KT 15/M04 A2986 RMK A01 T01461038  RH  028%=      5-min Rain = 0
KST4 132039Z 05007KT 15/M04 A2986 RMK A01 T01461040  RH  027%=      5-min Rain = 0
KST4 132040Z 06006KT 15/M04 A2986 RMK A01 T01451040  RH  028%=      5-min Rain = 0
KST4 132041Z 07006KT 15/M04 A2986 RMK A01 T01451040  RH  028%=      5-min Rain = 0
KST4 132042Z 10004KT 14/M04 A2986 RMK A01 T01441041  RH  028%=      5-min Rain = 0
KST4 132043Z 09005KT 14/M04 A2986 RMK A01 T01431040  RH  028%=      5-min Rain = 0
KST4 132044Z 09004KT 14/M04 A2986 RMK A01 T01441041  RH  027%=      5-min Rain = 0
KST4 132045Z 05005KT 14/M04 A2986 RMK A01 T01441040  RH  028%=      5-min Rain = 0
KST4 132046Z 06005KT 15/M04 A2986 RMK A01 T01471039  RH  028%=      5-min Rain = 0
KST4 132047Z 08004KT 15/M04 A2986 RMK A01 T01471040  RH  027%=      5-min Rain = 0
KST4 132048Z 10002KT 15/M04 A2986 RMK A01 T01451042  RH  027%=      5-min Rain = 0
KST4 132049Z 10002KT 15/M04 A2986 RMK A01 T01451042  RH  027%=      5-min Rain = 0
KST4 132050Z 09004KT 15/M04 A2986 RMK A01 T01451042  RH  027%=      5-min Rain = 0
KST4 132051Z 10005KT 15/M04 A2986 RMK A01 T01461040  RH  027%=      5-min Rain = 0
KST4 132052Z 09004KT 15/M04 A2986 RMK A01 T01471040  RH  027%=      5-min Rain = 0
KST4 132053Z 09002KT 15/M04 A2986 RMK A01 T01451042  RH  027%=      5-min Rain = 0
KST4 132054Z 07002KT 15/M04 A2986 RMK A01 T01451043  RH  027%=      5-min Rain = 0
KST4 132055Z 08003KT 15/M04 A2986 RMK A01 T01451042  RH  027%=      5-min Rain = 0
KST4 132056Z 07006KT 15/M04 A2986 RMK A01 T01461040  RH  027%=      5-min Rain = 0
KST4 132057Z 08009KT 15/M04 A2986 RMK A01 T01481038  RH  028%=      5-min Rain = 0
KST4 132058Z 07007KT 15/M04 A2986 RMK A01 T01471038  RH  028%=      5-min Rain = 0
KST4 132059Z 07006KT 15/M04 A2986 RMK A01 T01461039  RH  028%=      5-min Rain = 0
KST4 132100Z 07004KT 15/M04 A2986 RMK A01 T01451039  RH  028%=      5-min Rain = 0
KST4 132101Z 07003KT 14/M04 A2985 RMK A01 T01431041  RH  028%=      5-min Rain = 0
KST4 132102Z 08007KT 14/M04 A2985 RMK A01 T01431038  RH  028%=      5-min Rain = 0
KST4 132103Z 07007KT 15/M04 A2985 RMK A01 T01461038  RH  028%=      5-min Rain = 0
KST4 132104Z 10008KT 15/M04 A2985 RMK A01 T01461038  RH  028%=      5-min Rain = 0
KST4 132105Z 11007KT 15/M04 A2985 RMK A01 T01471037  RH  028%=      5-min Rain = 0
KST4 132106Z 10007KT 15/M04 A2985 RMK A01 T01461039  RH  028%=      5-min Rain = 0
KST4 132107Z 09006KT 15/M04 A2985 RMK A01 T01451037  RH  028%=      5-min Rain = 0
KST4 132108Z 04005KT 15/M04 A2986 RMK A01 T01461039  RH  028%=      5-min Rain = 0
KST4 132109Z 05003KT 15/M04 A2986 RMK A01 T01461040  RH  027%=      5-min Rain = 0
KST4 132110Z 03006KT 15/M04 A2986 RMK A01 T01451040  RH  027%=      5-min Rain = 0
KST4 132111Z 04004KT 15/M04 A2986 RMK A01 T01451040  RH  028%=      5-min Rain = 0
KST4 132112Z 08005KT 15/M04 A2986 RMK A01 T01451039  RH  028%=      5-min Rain = 0
KST4 132113Z 06006KT 15/M04 A2986 RMK A01 T01461037  RH  028%=      5-min Rain = 0
KST4 132114Z 05005KT 15/M04 A2986 RMK A01 T01461039  RH  028%=      5-min Rain = 0
KST4 132115Z 03003KT 14/M04 A2986 RMK A01 T01441039  RH  028%=      5-min Rain = 0
KST4 132116Z 03002KT 14/M04 A2986 RMK A01 T01441039  RH  028%=      5-min Rain = 0
KST4 132117Z 11002KT 15/M04 A2986 RMK A01 T01461037  RH  028%=      5-min Rain = 0
KST4 132118Z 11003KT 15/M04 A2986 RMK A01 T01471038  RH  028%=      5-min Rain = 0
KST4 132119Z 13004KT 15/M04 A2986 RMK A01 T01481037  RH  028%=      5-min Rain = 0
KST4 132120Z 11004KT 15/M04 A2986 RMK A01 T01491037  RH  027%=      5-min Rain = 0
KST4 132121Z 09003KT 15/M04 A2986 RMK A01 T01481039  RH  027%=      5-min Rain = 0
KST4 132122Z 07003KT 15/M04 A2986 RMK A01 T01471039  RH  027%=      5-min Rain = 0
KST4 132123Z 06003KT 15/M04 A2987 RMK A01 T01461039  RH  028%=      5-min Rain = 0
KST4 132124Z 06005KT 15/M04 A2987 RMK A01 T01461038  RH  028%=      5-min Rain = 0
KST4 132125Z 06004KT 15/M04 A2987 RMK A01 T01461039  RH  028%=      5-min Rain = 0
KST4 132126Z 06003KT 15/M04 A2987 RMK A01 T01451040  RH  028%=      5-min Rain = 0
KST4 132127Z 05003KT 14/M04 A2987 RMK A01 T01441040  RH  028%=      5-min Rain = 0
KST4 132128Z 08003KT 14/M04 A2987 RMK A01 T01431039  RH  028%=      5-min Rain = 0
KST4 132129Z 10002KT 14/M04 A2987 RMK A01 T01431040  RH  028%=      5-min Rain = 0
KST4 132130Z 04004KT 14/M04 A2987 RMK A01 T01441039  RH  028%=      5-min Rain = 0
KST4 132131Z 03002KT 14/M04 A2987 RMK A01 T01441040  RH  028%=      5-min Rain = 0
KST4 132132Z 04002KT 14/M04 A2987 RMK A01 T01431040  RH  028%=      5-min Rain = 0
KST4 132133Z 07005KT 14/M04 A2987 RMK A01 T01441039  RH  028%=      5-min Rain = 0
KST4 132134Z 05005KT 15/M04 A2987 RMK A01 T01461037  RH  028%=      5-min Rain = 0
KST4 132135Z 05004KT 15/M04 A2987 RMK A01 T01461039  RH  028%=      5-min Rain = 0
KST4 132136Z 06004KT 14/M04 A2987 RMK A01 T01441041  RH  028%=      5-min Rain = 0
KST4 132137Z 04002KT 14/M04 A2987 RMK A01 T01421042  RH  028%=      5-min Rain = 0
KST4 132138Z 08004KT 14/M04 A2987 RMK A01 T01411041  RH  028%=      5-min Rain = 0
KST4 132139Z 09004KT 14/M04 A2987 RMK A01 T01421040  RH  028%=      5-min Rain = 0
KST4 132140Z 10004KT 14/M04 A2987 RMK A01 T01431039  RH  028%=      5-min Rain = 0
KST4 132141Z 09004KT 14/M04 A2987 RMK A01 T01431040  RH  028%=      5-min Rain = 0
KST4 132142Z 10003KT 14/M04 A2987 RMK A01 T01441040  RH  028%=      5-min Rain = 0
KST4 132143Z 10003KT 14/M04 A2987 RMK A01 T01441040  RH  028%=      5-min Rain = 0
KST4 132144Z 12001KT 15/M04 A2987 RMK A01 T01451040  RH  028%=      5-min Rain = 0
KST4 132145Z 17001KT 15/M04 A2987 RMK A01 T01451042  RH  027%=      5-min Rain = 0
KST4 132146Z 14001KT 15/M04 A2987 RMK A01 T01451041  RH  027%=      5-min Rain = 0
KST4 132147Z 13001KT 15/M04 A2986 RMK A01 T01461040  RH  027%=      5-min Rain = 0
KST4 132148Z 11003KT 15/M04 A2986 RMK A01 T01481040  RH  027%=      5-min Rain = 0
KST4 132149Z 11003KT 15/M04 A2987 RMK A01 T01491040  RH  027%=      5-min Rain = 0
KST4 132150Z 11003KT 15/M04 A2987 RMK A01 T01481041  RH  027%=      5-min Rain = 0
KST4 132151Z 09004KT 15/M04 A2987 RMK A01 T01481041  RH  027%=      5-min Rain = 0
KST4 132152Z 08002KT 15/M04 A2987 RMK A01 T01461043  RH  027%=      5-min Rain = 0
KST4 132153Z 08002KT 14/M04 A2987 RMK A01 T01441043  RH  027%=      5-min Rain = 0
KST4 132154Z 09001KT 14/M04 A2987 RMK A01 T01441042  RH  027%=      5-min Rain = 0
KST4 132155Z 08001KT 15/M04 A2987 RMK A01 T01451042  RH  027%=      5-min Rain = 0
KST4 132156Z 06002KT 15/M04 A2987 RMK A01 T01451042  RH  027%=      5-min Rain = 0
KST4 132157Z 06003KT 15/M04 A2987 RMK A01 T01461042  RH  027%=      5-min Rain = 0
KST4 132158Z 06004KT 15/M04 A2988 RMK A01 T01461041  RH  027%=      5-min Rain = 0
KST4 132159Z 04003KT 15/M04 A2988 RMK A01 T01461041  RH  027%=      5-min Rain = 0
KST4 132200Z 03003KT 15/M04 A2988 RMK A01 T01461040  RH  027%=      5-min Rain = 0
KST4 132201Z 04003KT 15/M04 A2988 RMK A01 T01461041  RH  027%=      5-min Rain = 0
KST4 132202Z 06003KT 15/M04 A2988 RMK A01 T01461041  RH  027%=      5-min Rain = 0
KST4 132203Z 03004KT 15/M04 A2988 RMK A01 T01461041  RH  027%=      5-min Rain = 0
KST4 132204Z 03005KT 15/M04 A2988 RMK A01 T01461040  RH  027%=      5-min Rain = 0
KST4 132205Z 03004KT 15/M04 A2988 RMK A01 T01451041  RH  027%=      5-min Rain = 0
KST4 132206Z 03004KT 14/M04 A2988 RMK A01 T01441042  RH  027%=      5-min Rain = 0
KST4 132207Z 04005KT 14/M04 A2988 RMK A01 T01431042  RH  028%=      5-min Rain = 0
KST4 132208Z 04005KT 14/M04 A2988 RMK A01 T01431041  RH  028%=      5-min Rain = 0
KST4 132209Z 05004KT 14/M04 A2988 RMK A01 T01431041  RH  028%=      5-min Rain = 0
KST4 132210Z 04004KT 14/M04 A2988 RMK A01 T01431042  RH  028%=      5-min Rain = 0
KST4 132211Z 05005KT 14/M04 A2988 RMK A01 T01431041  RH  028%=      5-min Rain = 0
KST4 132212Z 05005KT 14/M04 A2988 RMK A01 T01421042  RH  028%=      5-min Rain = 0
KST4 132213Z 05004KT 14/M04 A2988 RMK A01 T01421042  RH  028%=      5-min Rain = 0
KST4 132214Z 05004KT 14/M04 A2988 RMK A01 T01421041  RH  028%=      5-min Rain = 0
KST4 132215Z 06004KT 14/M04 A2988 RMK A01 T01431041  RH  028%=      5-min Rain = 0
KST4 132216Z 05004KT 14/M04 A2988 RMK A01 T01431042  RH  028%=      5-min Rain = 0
KST4 132217Z 07003KT 14/M04 A2988 RMK A01 T01431042  RH  028%=      5-min Rain = 0
KST4 132218Z 07002KT 14/M04 A2987 RMK A01 T01431043  RH  027%=      5-min Rain = 0
KST4 132219Z 06002KT 14/M04 A2987 RMK A01 T01431043  RH  027%=      5-min Rain = 0
KST4 132220Z 06003KT 14/M04 A2987 RMK A01 T01431042  RH  028%=      5-min Rain = 0
KST4 132221Z 05003KT 14/M04 A2987 RMK A01 T01431042  RH  028%=      5-min Rain = 0
KST4 132222Z 06003KT 14/M04 A2987 RMK A01 T01431043  RH  027%=      5-min Rain = 0
KST4 132223Z 06003KT 14/M04 A2987 RMK A01 T01431043  RH  027%=      5-min Rain = 0
KST4 132224Z 09003KT 14/M04 A2987 RMK A01 T01431042  RH  028%=      5-min Rain = 0
KST4 132225Z 11002KT 14/M04 A2986 RMK A01 T01421042  RH  028%=      5-min Rain = 0
KST4 132226Z 10002KT 14/M04 A2986 RMK A01 T01421043  RH  027%=      5-min Rain = 0
KST4 132227Z 11003KT 14/M04 A2986 RMK A01 T01421041  RH  028%=      5-min Rain = 0
KST4 132228Z 11004KT 14/M04 A2986 RMK A01 T01431041  RH  028%=      5-min Rain = 0
KST4 132229Z 10005KT 14/M04 A2986 RMK A01 T01431040  RH  028%=      5-min Rain = 0
KST4 132230Z 09005KT 14/M04 A2986 RMK A01 T01411040  RH  028%=      5-min Rain = 0
KST4 132231Z 10005KT 14/M04 A2986 RMK A01 T01411039  RH  029%=      5-min Rain = 0
KST4 132232Z 10005KT 14/M04 A2986 RMK A01 T01401039  RH  029%=      5-min Rain = 0
KST4 132233Z 09006KT 14/M04 A2986 RMK A01 T01391039  RH  029%=      5-min Rain = 0
KST4 132234Z 08005KT 14/M04 A2986 RMK A01 T01381039  RH  029%=      5-min Rain = 0
KST4 132235Z 09006KT 14/M04 A2987 RMK A01 T01371040  RH  029%=      5-min Rain = 0
KST4 132236Z 10005KT 14/M04 A2987 RMK A01 T01381040  RH  029%=      5-min Rain = 0
KST4 132237Z 09005KT 14/M04 A2987 RMK A01 T01371040  RH  029%=      5-min Rain = 0
KST4 132238Z 09005KT 14/M04 A2987 RMK A01 T01371039  RH  029%=      5-min Rain = 0
KST4 132239Z 09005KT 14/M04 A2987 RMK A01 T01361040  RH  029%=      5-min Rain = 0
KST4 132240Z 09005KT 14/M04 A2987 RMK A01 T01361040  RH  029%=      5-min Rain = 0
KST4 132241Z 10005KT 14/M04 A2987 RMK A01 T01361039  RH  029%=      5-min Rain = 0
KST4 132242Z 09005KT 14/M04 A2987 RMK A01 T01351039  RH  030%=      5-min Rain = 0
KST4 132243Z 09005KT 14/M04 A2987 RMK A01 T01351039  RH  030%=      5-min Rain = 0
KST4 132244Z 09005KT 13/M04 A2987 RMK A01 T01341040  RH  030%=      5-min Rain = 0
KST4 132245Z 09004KT 13/M04 A2987 RMK A01 T01331040  RH  030%=      5-min Rain = 0
KST4 132246Z 10004KT 13/M04 A2987 RMK A01 T01331040  RH  030%=      5-min Rain = 0
KST4 132247Z 10003KT 13/M04 A2988 RMK A01 T01331040  RH  030%=      5-min Rain = 0
KST4 132248Z 10003KT 13/M04 A2988 RMK A01 T01331040  RH  030%=      5-min Rain = 0
KST4 132249Z 10003KT 13/M04 A2988 RMK A01 T01321040  RH  030%=      5-min Rain = 0
KST4 132250Z 10003KT 13/M04 A2988 RMK A01 T01321040  RH  030%=      5-min Rain = 0
KST4 132251Z 10002KT 13/M04 A2988 RMK A01 T01321040  RH  030%=      5-min Rain = 0
KST4 132252Z 10002KT 13/M04 A2989 RMK A01 T01321040  RH  030%=      5-min Rain = 0
KST4 132253Z 10002KT 13/M04 A2989 RMK A01 T01321041  RH  030%=      5-min Rain = 0
KST4 132254Z 09002KT 13/M04 A2989 RMK A01 T01321041  RH  030%=      5-min Rain = 0
KST4 132255Z 09003KT 13/M04 A2989 RMK A01 T01321041  RH  030%=      5-min Rain = 0
KST4 132256Z 07003KT 13/M04 A2989 RMK A01 T01311041  RH  030%=      5-min Rain = 0
KST4 132257Z 07003KT 13/M04 A2989 RMK A01 T01311041  RH  030%=      5-min Rain = 0
KST4 132258Z 07003KT 13/M04 A2989 RMK A01 T01311041  RH  030%=      5-min Rain = 0
KST4 132259Z 07003KT 13/M04 A2989 RMK A01 T01301041  RH  030%=      5-min Rain = 0
KST4 132300Z 07003KT 13/M04 A2989 RMK A01 T01291041  RH  030%=      5-min Rain = 0
KST4 132301Z 08003KT 13/M04 A2989 RMK A01 T01291041  RH  030%=      5-min Rain = 0
KST4 132302Z 09003KT 13/M04 A2988 RMK A01 T01291041  RH  030%=      5-min Rain = 0
KST4 132303Z 09003KT 13/M04 A2988 RMK A01 T01281042  RH  030%=      5-min Rain = 0
KST4 132304Z 09003KT 13/M04 A2988 RMK A01 T01261042  RH  031%=      5-min Rain = 0
KST4 132305Z 09003KT 13/M04 A2988 RMK A01 T01251043  RH  031%=      5-min Rain = 0
KST4 132306Z 09003KT 12/M04 A2988 RMK A01 T01241043  RH  031%=      5-min Rain = 0
KST4 132307Z 09004KT 12/M04 A2988 RMK A01 T01221044  RH  031%=      5-min Rain = 0
KST4 132308Z 10003KT 12/M04 A2988 RMK A01 T01211044  RH  031%=      5-min Rain = 0
KST4 132309Z 10003KT 12/M04 A2988 RMK A01 T01211044  RH  031%=      5-min Rain = 0
KST4 132310Z 10003KT 12/M04 A2988 RMK A01 T01211044  RH  031%=      5-min Rain = 0
KST4 132311Z 10003KT 12/M04 A2989 RMK A01 T01211044  RH  031%=      5-min Rain = 0
KST4 132312Z 10003KT 12/M05 A2989 RMK A01 T01211045  RH  031%=      5-min Rain = 0
KST4 132313Z 10003KT 12/M05 A2989 RMK A01 T01201045  RH  031%=      5-min Rain = 0
KST4 132314Z 11003KT 12/M05 A2989 RMK A01 T01191045  RH  031%=      5-min Rain = 0
KST4 132315Z 11003KT 12/M05 A2989 RMK A01 T01191045  RH  031%=      5-min Rain = 0
KST4 132316Z 11003KT 12/M05 A2989 RMK A01 T01181046  RH  031%=      5-min Rain = 0
KST4 132317Z 12003KT 12/M05 A2989 RMK A01 T01181045  RH  032%=      5-min Rain = 0
KST4 132318Z 12003KT 12/M05 A2989 RMK A01 T01171045  RH  032%=      5-min Rain = 0
KST4 132319Z 11003KT 12/M05 A2989 RMK A01 T01171045  RH  032%=      5-min Rain = 0
KST4 132320Z 10003KT 12/M05 A2989 RMK A01 T01171045  RH  032%=      5-min Rain = 0
KST4 132321Z 09003KT 12/M04 A2989 RMK A01 T01171044  RH  032%=      5-min Rain = 0
KST4 132322Z 08003KT 12/M04 A2989 RMK A01 T01181044  RH  032%=      5-min Rain = 0
KST4 132323Z 08003KT 12/M04 A2989 RMK A01 T01181044  RH  032%=      5-min Rain = 0
KST4 132324Z 08003KT 12/M04 A2989 RMK A01 T01171044  RH  032%=      5-min Rain = 0
KST4 132325Z 09003KT 12/M04 A2989 RMK A01 T01171044  RH  032%=      5-min Rain = 0
KST4 132326Z 09003KT 12/M05 A2989 RMK A01 T01161045  RH  032%=      5-min Rain = 0
KST4 132327Z 09003KT 12/M05 A2989 RMK A01 T01151045  RH  032%=      5-min Rain = 0
KST4 132328Z 09003KT 11/M05 A2989 RMK A01 T01141045  RH  033%=      5-min Rain = 0
KST4 132329Z 09003KT 11/M05 A2989 RMK A01 T01131045  RH  033%=      5-min Rain = 0
KST4 132330Z 09003KT 11/M05 A2989 RMK A01 T01121045  RH  033%=      5-min Rain = 0
KST4 132331Z 09003KT 11/M05 A2989 RMK A01 T01111045  RH  033%=      5-min Rain = 0
KST4 132332Z 09003KT 11/M04 A2989 RMK A01 T01101044  RH  033%=      5-min Rain = 0
KST4 132333Z 09003KT 11/M04 A2989 RMK A01 T01101044  RH  034%=      5-min Rain = 0
KST4 132334Z 08003KT 11/M04 A2989 RMK A01 T01101044  RH  034%=      5-min Rain = 0
KST4 132335Z 08003KT 11/M04 A299 RMK A01 T01081044  RH  034%=      5-min Rain = 0
KST4 132336Z 07003KT 11/M04 A2989 RMK A01 T01061044  RH  034%=      5-min Rain = 0
KST4 132337Z 08003KT 11/M04 A2989 RMK A01 T01051044  RH  035%=      5-min Rain = 0
KST4 132338Z 08003KT 10/M04 A2989 RMK A01 T01041044  RH  035%=      5-min Rain = 0
KST4 132339Z 08003KT 10/M04 A2989 RMK A01 T01031044  RH  035%=      5-min Rain = 0
KST4 132340Z 08003KT 10/M04 A2989 RMK A01 T01021044  RH  035%=      5-min Rain = 0
KST4 132341Z 08003KT 10/M04 A2989 RMK A01 T01011044  RH  036%=      5-min Rain = 0
KST4 132342Z 08003KT 10/M04 A2989 RMK A01 T01001044  RH  036%=      5-min Rain = 0
KST4 132343Z 08004KT 10/M04 A2989 RMK A01 T00991044  RH  036%=      5-min Rain = 0
KST4 132344Z 08004KT 10/M04 A2989 RMK A01 T00991043  RH  036%=      5-min Rain = 0
KST4 132345Z 08004KT 10/M04 A2989 RMK A01 T00981044  RH  037%=      5-min Rain = 0
KST4 132346Z 08004KT 10/M04 A2989 RMK A01 T00971044  RH  037%=      5-min Rain = 0
KST4 132347Z 07003KT 10/M04 A2989 RMK A01 T00961044  RH  037%=      5-min Rain = 0
KST4 132348Z 06003KT 10/M04 A2989 RMK A01 T00951044  RH  037%=      5-min Rain = 0
KST4 132349Z 06004KT 09/M05 A2989 RMK A01 T00931045  RH  037%=      5-min Rain = 0
KST4 132350Z 06004KT 09/M05 A2989 RMK A01 T00921045  RH  038%=      5-min Rain = 0
KST4 132351Z 06004KT 09/M04 A2989 RMK A01 T00921044  RH  038%=      5-min Rain = 0
KST4 132352Z 06004KT 09/M05 A2989 RMK A01 T00921045  RH  038%=      5-min Rain = 0
KST4 132353Z 06004KT 09/M05 A2989 RMK A01 T00931045  RH  038%=      5-min Rain = 0
KST4 132354Z 07004KT 09/M05 A2989 RMK A01 T00921045  RH  038%=      5-min Rain = 0
KST4 132355Z 06004KT 09/M05 A2989 RMK A01 T00921045  RH  038%=      5-min Rain = 0
KST4 132356Z 05005KT 09/M05 A2989 RMK A01 T00911046  RH  038%=      5-min Rain = 0
KST4 132357Z 05005KT 09/M05 A2989 RMK A01 T00901047  RH  038%=      5-min Rain = 0
KST4 132358Z 06005KT 09/M05 A2989 RMK A01 T00881047  RH  038%=      5-min Rain = 0
KST4 132359Z 06005KT 09/M05 A2989 RMK A01 T00881046  RH  038%=      5-min Rain = 0
KST4 140000Z 06004KT 09/M05 A2989 RMK A01 T00881046  RH  039%=      5-min Rain = 0
KST4 140001Z 06004KT 09/M05 A2989 RMK A01 T00861046  RH  039%=      5-min Rain = 0
KST4 140002Z 05004KT 09/M05 A299 RMK A01 T00861046  RH  039%=      5-min Rain = 0
KST4 140003Z 05004KT 09/M05 A299 RMK A01 T00851046  RH  039%=      5-min Rain = 0
KST4 140004Z 06004KT 08/M05 A299 RMK A01 T00841046  RH  039%=      5-min Rain = 0
KST4 140005Z 05004KT 08/M05 A299 RMK A01 T00841046  RH  040%=      5-min Rain = 0
KST4 140006Z 05004KT 08/M05 A299 RMK A01 T00841045  RH  040%=      5-min Rain = 0
KST4 140007Z 05004KT 08/M05 A299 RMK A01 T00841045  RH  040%=      5-min Rain = 0
KST4 140008Z 04004KT 08/M05 A299 RMK A01 T00811047  RH  040%=      5-min Rain = 0
KST4 140009Z 04004KT 08/M05 A299 RMK A01 T00791047  RH  040%=      5-min Rain = 0
KST4 140010Z 04004KT 08/M05 A299 RMK A01 T00771047  RH  041%=      5-min Rain = 0
KST4 140011Z 05004KT 08/M05 A299 RMK A01 T00761046  RH  041%=      5-min Rain = 0
KST4 140012Z 05004KT 08/M05 A299 RMK A01 T00751046  RH  042%=      5-min Rain = 0
KST4 140013Z 06004KT 07/M05 A299 RMK A01 T00741046  RH  042%=      5-min Rain = 0
KST4 140014Z 06004KT 08/M05 A299 RMK A01 T00751045  RH  042%=      5-min Rain = 0
KST4 140015Z 06004KT 08/M05 A299 RMK A01 T00751045  RH  042%=      5-min Rain = 0
KST4 140016Z 06004KT 08/M05 A299 RMK A01 T00751045  RH  042%=      5-min Rain = 0
KST4 140017Z 05005KT 08/M05 A299 RMK A01 T00761045  RH  042%=      5-min Rain = 0
KST4 140018Z 05005KT 08/M05 A299 RMK A01 T00751046  RH  042%=      5-min Rain = 0
KST4 140019Z 05005KT 08/M05 A299 RMK A01 T00751046  RH  042%=      5-min Rain = 0
KST4 140020Z 05005KT 07/M05 A299 RMK A01 T00731047  RH  042%=      5-min Rain = 0
KST4 140021Z 06006KT 07/M05 A299 RMK A01 T00711047  RH  043%=      5-min Rain = 0
KST4 140022Z 05005KT 07/M05 A299 RMK A01 T00701047  RH  043%=      5-min Rain = 0
KST4 140023Z 05005KT 07/M05 A299 RMK A01 T00681047  RH  043%=      5-min Rain = 0
KST4 140024Z 05005KT 07/M05 A299 RMK A01 T00661047  RH  044%=      5-min Rain = 0
KST4 140025Z 05005KT 07/M05 A299 RMK A01 T00651047  RH  045%=      5-min Rain = 0
KST4 140026Z 05005KT 07/M05 A299 RMK A01 T00651046  RH  045%=      5-min Rain = 0
KST4 140027Z 05006KT 07/M05 A299 RMK A01 T00651046  RH  045%=      5-min Rain = 0
KST4 140028Z 05006KT 07/M05 A299 RMK A01 T00651046  RH  045%=      5-min Rain = 0
KST4 140029Z 05005KT 07/M05 A2991 RMK A01 T00661046  RH  045%=      5-min Rain = 0
KST4 140030Z 05005KT 07/M05 A2991 RMK A01 T00661046  RH  045%=      5-min Rain = 0
KST4 140031Z 04005KT 07/M05 A2991 RMK A01 T00661047  RH  045%=      5-min Rain = 0
KST4 140032Z 04005KT 06/M05 A2991 RMK A01 T00641047  RH  045%=      5-min Rain = 0
KST4 140033Z 04005KT 06/M05 A2991 RMK A01 T00641047  RH  045%=      5-min Rain = 0
KST4 140034Z 04006KT 06/M05 A2991 RMK A01 T00641046  RH  045%=      5-min Rain = 0
KST4 140035Z 04006KT 06/M05 A2992 RMK A01 T00641046  RH  045%=      5-min Rain = 0
KST4 140036Z 04006KT 06/M05 A2992 RMK A01 T00631046  RH  045%=      5-min Rain = 0
KST4 140037Z 03006KT 06/M05 A2992 RMK A01 T00631046  RH  046%=      5-min Rain = 0
KST4 140038Z 03006KT 06/M05 A2992 RMK A01 T00621047  RH  046%=      5-min Rain = 0
KST4 140039Z 03006KT 06/M05 A2992 RMK A01 T00621047  RH  046%=      5-min Rain = 0
KST4 140040Z 03006KT 06/M05 A2992 RMK A01 T00621047  RH  046%=      5-min Rain = 0
KST4 140041Z 04006KT 06/M05 A2993 RMK A01 T00631046  RH  046%=      5-min Rain = 0
KST4 140042Z 04006KT 06/M05 A2993 RMK A01 T00641046  RH  045%=      5-min Rain = 0
KST4 140043Z 03006KT 06/M05 A2993 RMK A01 T00621048  RH  045%=      5-min Rain = 0
KST4 140044Z 03005KT 06/M05 A2993 RMK A01 T00601050  RH  045%=      5-min Rain = 0
KST4 140045Z 03005KT 06/M05 A2993 RMK A01 T00571048  RH  047%=      5-min Rain = 0
KST4 140046Z 04005KT 06/M05 A2993 RMK A01 T00561047  RH  047%=      5-min Rain = 0
KST4 140047Z 04005KT 06/M05 A2993 RMK A01 T00561047  RH  048%=      5-min Rain = 0
KST4 140048Z 03004KT 06/M05 A2993 RMK A01 T00571046  RH  047%=      5-min Rain = 0
KST4 140049Z 03004KT 06/M05 A2993 RMK A01 T00581047  RH  047%=      5-min Rain = 0
KST4 140050Z 04005KT 06/M05 A2993 RMK A01 T00601045  RH  047%=      5-min Rain = 0
KST4 140051Z 04004KT 06/M05 A2993 RMK A01 T00621045  RH  046%=      5-min Rain = 0
KST4 140052Z 04004KT 06/M05 A2993 RMK A01 T00631045  RH  046%=      5-min Rain = 0
KST4 140053Z 04004KT 07/M05 A2993 RMK A01 T00651046  RH  045%=      5-min Rain = 0
KST4 140054Z 04004KT 07/M05 A2993 RMK A01 T00661046  RH  045%=      5-min Rain = 0
KST4 140055Z 04004KT 07/M05 A2993 RMK A01 T00671045  RH  045%=      5-min Rain = 0
KST4 140056Z 04004KT 07/M05 A2993 RMK A01 T00681045  RH  044%=      5-min Rain = 0
KST4 140057Z 06003KT 07/M05 A2993 RMK A01 T00681047  RH  044%=      5-min Rain = 0
KST4 140058Z 07003KT 07/M05 A2993 RMK A01 T00671048  RH  044%=      5-min Rain = 0
KST4 140059Z 06003KT 07/M05 A2993 RMK A01 T00661047  RH  044%=      5-min Rain = 0
KST4 140100Z 06003KT 07/M05 A2993 RMK A01 T00661047  RH  044%=      5-min Rain = 0
KST4 140101Z 07003KT 07/M05 A2993 RMK A01 T00671047  RH  044%=      5-min Rain = 0
KST4 140102Z 07003KT 07/M05 A2993 RMK A01 T00661048  RH  044%=      5-min Rain = 0
KST4 140103Z 06003KT 07/M05 A2993 RMK A01 T00651047  RH  044%=      5-min Rain = 0
KST4 140104Z 06003KT 07/M05 A2993 RMK A01 T00651048  RH  044%=      5-min Rain = 0
KST4 140105Z 06003KT 07/M05 A2993 RMK A01 T00651048  RH  044%=      5-min Rain = 0
KST4 140106Z 07003KT 07/M05 A2994 RMK A01 T00651048  RH  044%=      5-min Rain = 0
KST4 140107Z 08003KT 07/M05 A2993 RMK A01 T00651047  RH  045%=      5-min Rain = 0
KST4 140108Z 09003KT 07/M05 A2993 RMK A01 T00651046  RH  045%=      5-min Rain = 0
KST4 140109Z 09004KT 07/M05 A2993 RMK A01 T00671046  RH  045%=      5-min Rain = 0
KST4 140110Z 07004KT 07/M05 A2993 RMK A01 T00681046  RH  044%=      5-min Rain = 0
KST4 140111Z 06005KT 07/M05 A2993 RMK A01 T00711045  RH  044%=      5-min Rain = 0
KST4 140112Z 06005KT 07/M05 A2993 RMK A01 T00731045  RH  043%=      5-min Rain = 0
KST4 140113Z 07005KT 07/M05 A2993 RMK A01 T00741045  RH  042%=      5-min Rain = 0
KST4 140114Z 06005KT 08/M05 A2993 RMK A01 T00751047  RH  042%=      5-min Rain = 0
KST4 140115Z 06005KT 07/M05 A2993 RMK A01 T00741047  RH  042%=      5-min Rain = 0
KST4 140116Z 06004KT 07/M05 A2993 RMK A01 T00731048  RH  042%=      5-min Rain = 0
KST4 140117Z 06005KT 07/M05 A2993 RMK A01 T00711049  RH  042%=      5-min Rain = 0
KST4 140118Z 06005KT 07/M05 A2994 RMK A01 T00701049  RH  042%=      5-min Rain = 0
KST4 140119Z 05004KT 07/M05 A2994 RMK A01 T00691049  RH  043%=      5-min Rain = 0
KST4 140120Z 05004KT 07/M05 A2994 RMK A01 T00691049  RH  043%=      5-min Rain = 0
KST4 140121Z 05004KT 07/M05 A2994 RMK A01 T00671049  RH  043%=      5-min Rain = 0
KST4 140122Z 04004KT 07/M05 A2994 RMK A01 T00661049  RH  043%=      5-min Rain = 0
KST4 140123Z 05005KT 07/M05 A2994 RMK A01 T00661049  RH  044%=      5-min Rain = 0
KST4 140124Z 05005KT 07/M05 A2994 RMK A01 T00651049  RH  044%=      5-min Rain = 0
KST4 140125Z 05005KT 07/M05 A2994 RMK A01 T00651049  RH  044%=      5-min Rain = 0
KST4 140126Z 04005KT 07/M05 A2994 RMK A01 T00661049  RH  044%=      5-min Rain = 0
KST4 140127Z 04006KT 07/M05 A2994 RMK A01 T00661050  RH  043%=      5-min Rain = 0
KST4 140128Z 04006KT 07/M05 A2994 RMK A01 T00671049  RH  043%=      5-min Rain = 0
KST4 140129Z 03008KT 07/M05 A2994 RMK A01 T00661050  RH  043%=      5-min Rain = 0
KST4 140130Z 03011KT 06/M05 A2994 RMK A01 T00631051  RH  044%=      5-min Rain = 0
KST4 140131Z 03012KT 06/M05 A2994 RMK A01 T00551054  RH  045%=      5-min Rain = 0
KST4 140132Z 03012KT 05/M05 A2994 RMK A01 T00481054  RH  047%=      5-min Rain = 0
KST4 140133Z 03012KT 05/M05 A2994 RMK A01 T00471051  RH  049%=      5-min Rain = 0
KST4 140134Z 03011KT 05/M05 A2994 RMK A01 T00521046  RH  049%=      5-min Rain = 0
KST4 140135Z 03010KT 06/M05 A2994 RMK A01 T00551045  RH  048%=      5-min Rain = 0
KST4 140136Z 03010KT 06/M05 A2994 RMK A01 T00571045  RH  048%=      5-min Rain = 0
KST4 140137Z 03009KT 06/M05 A2994 RMK A01 T00571045  RH  048%=      5-min Rain = 0
KST4 140138Z 03009KT 06/M05 A2994 RMK A01 T00571046  RH  047%=      5-min Rain = 0
KST4 140139Z 03009KT 06/M05 A2994 RMK A01 T00561046  RH  048%=      5-min Rain = 0
KST4 140140Z 03010KT 06/M05 A2995 RMK A01 T00551046  RH  048%=      5-min Rain = 0
KST4 140141Z 03010KT 06/M05 A2995 RMK A01 T00551046  RH  048%=      5-min Rain = 0
KST4 140142Z 03010KT 05/M05 A2995 RMK A01 T00541046  RH  048%=      5-min Rain = 0
KST4 140143Z 03010KT 05/M05 A2995 RMK A01 T00541046  RH  049%=      5-min Rain = 0
KST4 140144Z 04010KT 05/M05 A2995 RMK A01 T00541045  RH  049%=      5-min Rain = 0
KST4 140145Z 04011KT 06/M04 A2994 RMK A01 T00571044  RH  048%=      5-min Rain = 0
KST4 140146Z 04011KT 06/M04 A2994 RMK A01 T00591044  RH  048%=      5-min Rain = 0
KST4 140147Z 04011KT 06/M04 A2995 RMK A01 T00611043  RH  047%=      5-min Rain = 0
KST4 140148Z 04010KT 06/M04 A2995 RMK A01 T00621044  RH  047%=      5-min Rain = 0
KST4 140149Z 04010KT 06/M04 A2995 RMK A01 T00631043  RH  046%=      5-min Rain = 0
KST4 140150Z 05009KT 06/M04 A2995 RMK A01 T00631044  RH  046%=      5-min Rain = 0
KST4 140151Z 05009KT 06/M04 A2995 RMK A01 T00631044  RH  046%=      5-min Rain = 0
KST4 140152Z 05009KT 06/M04 A2995 RMK A01 T00631044  RH  046%=      5-min Rain = 0
KST4 140153Z 04008KT 06/M04 A2995 RMK A01 T00631044  RH  046%=      5-min Rain = 0
KST4 140154Z 05007KT 06/M04 A2995 RMK A01 T00621044  RH  046%=      5-min Rain = 0
KST4 140155Z 05008KT 06/M05 A2995 RMK A01 T00611045  RH  047%=      5-min Rain = 0
KST4 140156Z 05007KT 06/M05 A2995 RMK A01 T00601045  RH  047%=      5-min Rain = 0
KST4 140157Z 05007KT 06/M05 A2995 RMK A01 T00591045  RH  047%=      5-min Rain = 0
KST4 140158Z 05007KT 06/M05 A2995 RMK A01 T00591045  RH  047%=      5-min Rain = 0
KST4 140159Z 05007KT 06/M05 A2995 RMK A01 T00581046  RH  047%=      5-min Rain = 0
KST4 140200Z 05006KT 06/M05 A2995 RMK A01 T00571046  RH  048%=      5-min Rain = 0
KST4 140201Z 05007KT 06/M05 A2995 RMK A01 T00551047  RH  048%=      5-min Rain = 0
KST4 140202Z 04006KT 05/M05 A2995 RMK A01 T00541047  RH  048%=      5-min Rain = 0
KST4 140203Z 04007KT 05/M05 A2995 RMK A01 T00521047  RH  049%=      5-min Rain = 0
KST4 140204Z 04006KT 05/M05 A2996 RMK A01 T00501048  RH  049%=      5-min Rain = 0
KST4 140205Z 04006KT 05/M05 A2996 RMK A01 T00491048  RH  050%=      5-min Rain = 0
KST4 140206Z 03006KT 05/M05 A2996 RMK A01 T00471049  RH  050%=      5-min Rain = 0
KST4 140207Z 03006KT 05/M05 A2996 RMK A01 T00451049  RH  050%=      5-min Rain = 0
KST4 140208Z 02007KT 04/M05 A2996 RMK A01 T00421050  RH  051%=      5-min Rain = 0
KST4 140209Z 02007KT 04/M05 A2996 RMK A01 T00391051  RH  052%=      5-min Rain = 0
KST4 140210Z 03007KT 04/M05 A2996 RMK A01 T00361051  RH  053%=      5-min Rain = 0
KST4 140211Z 03007KT 04/M05 A2996 RMK A01 T00351050  RH  054%=      5-min Rain = 0
KST4 140212Z 02007KT 04/M05 A2996 RMK A01 T00351050  RH  054%=      5-min Rain = 0
KST4 140213Z 02007KT 03/M05 A2996 RMK A01 T00341050  RH  054%=      5-min Rain = 0
KST4 140214Z 02008KT 03/M05 A2996 RMK A01 T00331050  RH  055%=      5-min Rain = 0
KST4 140215Z 02008KT 03/M05 A2996 RMK A01 T00321050  RH  055%=      5-min Rain = 0
KST4 140216Z 01008KT 03/M05 A2997 RMK A01 T00301050  RH  055%=      5-min Rain = 0
KST4 140217Z 02007KT 03/M05 A2997 RMK A01 T00291051  RH  056%=      5-min Rain = 0
KST4 140218Z 02007KT 03/M05 A2997 RMK A01 T00281050  RH  057%=      5-min Rain = 0
KST4 140219Z 02007KT 03/M05 A2997 RMK A01 T00281049  RH  057%=      5-min Rain = 0
KST4 140220Z 02007KT 03/M05 A2997 RMK A01 T00271050  RH  057%=      5-min Rain = 0
KST4 140221Z 02007KT 03/M05 A2997 RMK A01 T00271049  RH  057%=      5-min Rain = 0
KST4 140222Z 02007KT 03/M05 A2997 RMK A01 T00271049  RH  057%=      5-min Rain = 0
KST4 140223Z 02007KT 03/M05 A2997 RMK A01 T00271049  RH  057%=      5-min Rain = 0
KST4 140224Z 02007KT 03/M05 A2997 RMK A01 T00271049  RH  057%=      5-min Rain = 0
KST4 140225Z 02007KT 03/M05 A2997 RMK A01 T00261049  RH  058%=      5-min Rain = 0
KST4 140226Z 01006KT 03/M05 A2998 RMK A01 T00261049  RH  058%=      5-min Rain = 0
KST4 140227Z 01006KT 03/M05 A2998 RMK A01 T00261049  RH  058%=      5-min Rain = 0
KST4 140228Z 01006KT 03/M05 A2998 RMK A01 T00251049  RH  058%=      5-min Rain = 0
KST4 140229Z 02006KT 03/M05 A2998 RMK A01 T00251048  RH  058%=      5-min Rain = 0
KST4 140230Z 01007KT 03/M05 A2998 RMK A01 T00251048  RH  058%=      5-min Rain = 0
KST4 140231Z 01007KT 03/M05 A2998 RMK A01 T00251048  RH  058%=      5-min Rain = 0
KST4 140232Z 01007KT 03/M05 A2998 RMK A01 T00251048  RH  058%=      5-min Rain = 0
KST4 140233Z 01007KT 03/M05 A2998 RMK A01 T00251048  RH  058%=      5-min Rain = 0
KST4 140234Z 01007KT 03/M05 A2998 RMK A01 T00251048  RH  058%=      5-min Rain = 0
KST4 140235Z 01007KT 02/M05 A2998 RMK A01 T00241049  RH  059%=      5-min Rain = 0
KST4 140236Z 00007KT 02/M05 A2999 RMK A01 T00231049  RH  059%=      5-min Rain = 0
KST4 140237Z 00007KT 02/M05 A2999 RMK A01 T00221050  RH  059%=      5-min Rain = 0
KST4 140238Z 00007KT 02/M05 A2999 RMK A01 T00211050  RH  059%=      5-min Rain = 0
KST4 140239Z 00007KT 02/M05 A2999 RMK A01 T00201051  RH  059%=      5-min Rain = 0
KST4 140240Z 01007KT 02/M05 A2999 RMK A01 T00201051  RH  060%=      5-min Rain = 0
KST4 140241Z 01007KT 02/M05 A2999 RMK A01 T00191050  RH  060%=      5-min Rain = 0
KST4 140242Z 01007KT 02/M05 A2999 RMK A01 T00191050  RH  060%=      5-min Rain = 0
KST4 140243Z 01007KT 02/M05 A2999 RMK A01 T00201049  RH  060%=      5-min Rain = 0
KST4 140244Z 01007KT 02/M05 A2999 RMK A01 T00201049  RH  060%=      5-min Rain = 0
KST4 140245Z 01007KT 02/M05 A2999 RMK A01 T00201049  RH  060%=      5-min Rain = 0
KST4 140246Z 01007KT 02/M05 A2999 RMK A01 T00201049  RH  060%=      5-min Rain = 0
KST4 140247Z 01007KT 02/M05 A2999 RMK A01 T00211048  RH  060%=      5-min Rain = 0
KST4 140248Z 01007KT 02/M05 A2999 RMK A01 T00211048  RH  060%=      5-min Rain = 0
KST4 140249Z 01007KT 02/M05 A2999 RMK A01 T00211048  RH  060%=      5-min Rain = 0
KST4 140250Z 01007KT 02/M05 A30 RMK A01 T00211047  RH  061%=      5-min Rain = 0
KST4 140251Z 01007KT 02/M05 A30 RMK A01 T00221046  RH  061%=      5-min Rain = 0
KST4 140252Z 01007KT 02/M05 A30 RMK A01 T00221045  RH  061%=      5-min Rain = 0
KST4 140253Z 01008KT 02/M04 A30 RMK A01 T00231044  RH  061%=      5-min Rain = 0
KST4 140254Z 01008KT 03/M04 A30 RMK A01 T00251043  RH  061%=      5-min Rain = 0
KST4 140255Z 01008KT 03/M04 A2999 RMK A01 T00261042  RH  061%=      5-min Rain = 0
KST4 140256Z 01008KT 03/M04 A2999 RMK A01 T00271041  RH  061%=      5-min Rain = 0
KST4 140257Z 01007KT 03/M04 A2999 RMK A01 T00271041  RH  061%=      5-min Rain = 0
KST4 140258Z 00007KT 03/M04 A30 RMK A01 T00281041  RH  061%=      5-min Rain = 0
KST4 140259Z 00007KT 03/M04 A30 RMK A01 T00271041  RH  061%=      5-min Rain = 0
KST4 140300Z 00007KT 03/M04 A30 RMK A01 T00261041  RH  061%=      5-min Rain = 0
KST4 140301Z 00007KT 03/M04 A30 RMK A01 T00261041  RH  062%=      5-min Rain = 0
KST4 140302Z 00007KT 03/M04 A30 RMK A01 T00251041  RH  062%=      5-min Rain = 0
KST4 140303Z 00007KT 02/M04 A30 RMK A01 T00241041  RH  062%=      5-min Rain = 0
KST4 140304Z 00007KT 02/M04 A30 RMK A01 T00231041  RH  063%=      5-min Rain = 0
KST4 140305Z 00007KT 02/M04 A2999 RMK A01 T00221040  RH  063%=      5-min Rain = 0
KST4 140306Z 00006KT 02/M04 A2999 RMK A01 T00221040  RH  064%=      5-min Rain = 0
KST4 140307Z 01006KT 02/M04 A2999 RMK A01 T00221040  RH  064%=      5-min Rain = 0
KST4 140308Z 01006KT 02/M04 A2999 RMK A01 T00221040  RH  064%=      5-min Rain = 0
KST4 140309Z 01007KT 02/M04 A2999 RMK A01 T00231039  RH  064%=      5-min Rain = 0
KST4 140310Z 01007KT 02/M04 A2999 RMK A01 T00231039  RH  063%=      5-min Rain = 0
KST4 140311Z 01007KT 02/M04 A2999 RMK A01 T00231039  RH  063%=      5-min Rain = 0
KST4 140312Z 01007KT 02/M04 A2999 RMK A01 T00231039  RH  063%=      5-min Rain = 0
KST4 140313Z 01007KT 02/M04 A2999 RMK A01 T00241039  RH  063%=      5-min Rain = 0
KST4 140314Z 01007KT 02/M04 A2999 RMK A01 T00241039  RH  063%=      5-min Rain = 0
KST4 140315Z 02007KT 03/M04 A2999 RMK A01 T00251038  RH  063%=      5-min Rain = 0
KST4 140316Z 01007KT 03/M04 A2999 RMK A01 T00261038  RH  063%=      5-min Rain = 0
KST4 140317Z 01007KT 03/M04 A2999 RMK A01 T00271037  RH  063%=      5-min Rain = 0
KST4 140318Z 01007KT 03/M04 A2999 RMK A01 T00281037  RH  062%=      5-min Rain = 0
KST4 140319Z 02007KT 03/M04 A2999 RMK A01 T00281038  RH  062%=      5-min Rain = 0
KST4 140320Z 01007KT 03/M04 A2999 RMK A01 T00291038  RH  062%=      5-min Rain = 0
KST4 140321Z 01007KT 03/M04 A2999 RMK A01 T00291037  RH  062%=      5-min Rain = 0
KST4 140322Z 01007KT 03/M04 A2999 RMK A01 T00301037  RH  061%=      5-min Rain = 0
KST4 140323Z 01007KT 03/M04 A2999 RMK A01 T00301037  RH  061%=      5-min Rain = 0
KST4 140324Z 01007KT 03/M04 A2999 RMK A01 T00311037  RH  061%=      5-min Rain = 0
KST4 140325Z 01007KT 03/M04 A2999 RMK A01 T00311037  RH  061%=      5-min Rain = 0
KST4 140326Z 01007KT 03/M04 A2999 RMK A01 T00321036  RH  061%=      5-min Rain = 0
KST4 140327Z 01008KT 03/M04 A2999 RMK A01 T00321036  RH  061%=      5-min Rain = 0
KST4 140328Z 00008KT 03/M04 A30 RMK A01 T00331036  RH  061%=      5-min Rain = 0
KST4 140329Z 00008KT 03/M04 A30 RMK A01 T00331036  RH  061%=      5-min Rain = 0
KST4 140330Z 00008KT 03/M04 A30 RMK A01 T00331036  RH  061%=      5-min Rain = 0
KST4 140331Z 00007KT 03/M04 A30 RMK A01 T00331036  RH  061%=      5-min Rain = 0
KST4 140332Z 01007KT 03/M04 A2999 RMK A01 T00331035  RH  061%=      5-min Rain = 0
KST4 140333Z 01007KT 03/M04 A2999 RMK A01 T00331035  RH  061%=      5-min Rain = 0
KST4 140334Z 00007KT 03/M04 A2999 RMK A01 T00331036  RH  061%=      5-min Rain = 0
KST4 140335Z 00007KT 03/M04 A2999 RMK A01 T00321036  RH  061%=      5-min Rain = 0
KST4 140336Z 00007KT 03/M04 A2999 RMK A01 T00311037  RH  061%=      5-min Rain = 0
KST4 140337Z 00006KT 03/M04 A2999 RMK A01 T00291038  RH  061%=      5-min Rain = 0
KST4 140338Z 00006KT 03/M04 A2999 RMK A01 T00281038  RH  062%=      5-min Rain = 0
KST4 140339Z 00007KT 03/M04 A2999 RMK A01 T00271038  RH  062%=      5-min Rain = 0
KST4 140340Z 00007KT 03/M04 A2999 RMK A01 T00271038  RH  062%=      5-min Rain = 0
KST4 140341Z 00007KT 03/M04 A2999 RMK A01 T00261039  RH  062%=      5-min Rain = 0
KST4 140342Z 00007KT 03/M04 A2999 RMK A01 T00261038  RH  063%=      5-min Rain = 0
KST4 140343Z 00007KT 03/M04 A2999 RMK A01 T00251039  RH  063%=      5-min Rain = 0
KST4 140344Z 00007KT 02/M04 A2999 RMK A01 T00241040  RH  063%=      5-min Rain = 0
KST4 140345Z 00007KT 02/M04 A2999 RMK A01 T00231040  RH  063%=      5-min Rain = 0
KST4 140346Z 00007KT 02/M04 A2999 RMK A01 T00221040  RH  063%=      5-min Rain = 0
KST4 140347Z 00007KT 02/M04 A2999 RMK A01 T00211040  RH  064%=      5-min Rain = 0
KST4 140348Z 00007KT 02/M04 A2999 RMK A01 T00201040  RH  064%=      5-min Rain = 0
KST4 140349Z 00007KT 02/M04 A2999 RMK A01 T00201041  RH  064%=      5-min Rain = 0
KST4 140350Z 00006KT 02/M04 A2999 RMK A01 T00191041  RH  064%=      5-min Rain = 0
KST4 140351Z 01006KT 02/M04 A2999 RMK A01 T00191041  RH  065%=      5-min Rain = 0
KST4 140352Z 01006KT 02/M04 A2999 RMK A01 T00191040  RH  065%=      5-min Rain = 0
KST4 140353Z 00006KT 02/M04 A30 RMK A01 T00201040  RH  065%=      5-min Rain = 0
KST4 140354Z 00007KT 02/M04 A30 RMK A01 T00211040  RH  064%=      5-min Rain = 0
KST4 140355Z 01006KT 02/M04 A30 RMK A01 T00211039  RH  064%=      5-min Rain = 0
KST4 140356Z 00007KT 02/M04 A30 RMK A01 T00211039  RH  064%=      5-min Rain = 0
KST4 140357Z 00007KT 02/M04 A30 RMK A01 T00211039  RH  064%=      5-min Rain = 0
KST4 140358Z 00007KT 02/M04 A30 RMK A01 T00211039  RH  064%=      5-min Rain = 0
KST4 140359Z 00007KT 02/M04 A30 RMK A01 T00221039  RH  064%=      5-min Rain = 0
KST4 140400Z 01007KT 02/M04 A30 RMK A01 T00231038  RH  064%=      5-min Rain = 0
KST4 140401Z 01007KT 03/M04 A30 RMK A01 T00251036  RH  064%=      5-min Rain = 0
KST4 140402Z 02007KT 03/M04 A30 RMK A01 T00281036  RH  063%=      5-min Rain = 0
KST4 140403Z 02007KT 03/M04 A30 RMK A01 T00301036  RH  062%=      5-min Rain = 0
KST4 140404Z 02006KT 03/M04 A30 RMK A01 T00311036  RH  061%=      5-min Rain = 0
KST4 140405Z 02007KT 03/M04 A30 RMK A01 T00321037  RH  061%=      5-min Rain = 0
KST4 140406Z 02007KT 03/M04 A30 RMK A01 T00321037  RH  061%=      5-min Rain = 0
KST4 140407Z 02007KT 03/M04 A2999 RMK A01 T00311037  RH  061%=      5-min Rain = 0
KST4 140408Z 02007KT 03/M04 A2999 RMK A01 T00311037  RH  061%=      5-min Rain = 0
KST4 140409Z 02007KT 03/M04 A2999 RMK A01 T00311037  RH  061%=      5-min Rain = 0
KST4 140410Z 02007KT 03/M04 A2999 RMK A01 T00321037  RH  061%=      5-min Rain = 0
KST4 140411Z 02007KT 03/M04 A2999 RMK A01 T00321036  RH  061%=      5-min Rain = 0
KST4 140412Z 02007KT 03/M04 A2999 RMK A01 T00321037  RH  061%=      5-min Rain = 0
KST4 140413Z 02007KT 03/M04 A2999 RMK A01 T00311037  RH  061%=      5-min Rain = 0
KST4 140414Z 02007KT 03/M04 A2999 RMK A01 T00311037  RH  061%=      5-min Rain = 0
KST4 140415Z 02007KT 03/M04 A2999 RMK A01 T00301037  RH  061%=      5-min Rain = 0
KST4 140416Z 02007KT 03/M04 A2999 RMK A01 T00301037  RH  061%=      5-min Rain = 0
KST4 140417Z 02007KT 03/M04 A2999 RMK A01 T00291037  RH  062%=      5-min Rain = 0
KST4 140418Z 02007KT 03/M04 A2999 RMK A01 T00291037  RH  062%=      5-min Rain = 0
KST4 140419Z 02006KT 03/M04 A2999 RMK A01 T00291038  RH  062%=      5-min Rain = 0
KST4 140420Z 02006KT 03/M04 A2999 RMK A01 T00291038  RH  062%=      5-min Rain = 0
KST4 140421Z 02006KT 03/M04 A2999 RMK A01 T00291038  RH  062%=      5-min Rain = 0
KST4 140422Z 02006KT 03/M04 A2999 RMK A01 T00281038  RH  062%=      5-min Rain = 0
KST4 140423Z 02005KT 03/M04 A2999 RMK A01 T00281038  RH  062%=      5-min Rain = 0
KST4 140424Z 02005KT 03/M04 A2999 RMK A01 T00281037  RH  062%=      5-min Rain = 0
KST4 140425Z 02005KT 03/M04 A2999 RMK A01 T00271038  RH  062%=      5-min Rain = 0
KST4 140426Z 02005KT 03/M04 A2999 RMK A01 T00271038  RH  062%=      5-min Rain = 0
KST4 140427Z 02006KT 03/M04 A2999 RMK A01 T00271038  RH  062%=      5-min Rain = 0
KST4 140428Z 02006KT 03/M04 A2998 RMK A01 T00271038  RH  062%=      5-min Rain = 0
KST4 140429Z 02006KT 03/M04 A2998 RMK A01 T00271039  RH  062%=      5-min Rain = 0
KST4 140430Z 02006KT 03/M04 A2998 RMK A01 T00261040  RH  062%=      5-min Rain = 0
KST4 140431Z 01006KT 03/M04 A2998 RMK A01 T00261040  RH  062%=      5-min Rain = 0
KST4 140432Z 01006KT 03/M04 A2999 RMK A01 T00251041  RH  062%=      5-min Rain = 0
KST4 140433Z 01006KT 02/M04 A2999 RMK A01 T00241040  RH  063%=      5-min Rain = 0
KST4 140434Z 01007KT 02/M04 A2999 RMK A01 T00231041  RH  063%=      5-min Rain = 0
KST4 140435Z 00007KT 02/M04 A2999 RMK A01 T00231041  RH  063%=      5-min Rain = 0
KST4 140436Z 00007KT 02/M04 A2999 RMK A01 T00231040  RH  063%=      5-min Rain = 0
KST4 140437Z 01007KT 02/M04 A2999 RMK A01 T00221040  RH  063%=      5-min Rain = 0
KST4 140438Z 01008KT 02/M04 A2999 RMK A01 T00211040  RH  064%=      5-min Rain = 0
KST4 140439Z 01008KT 02/M04 A2999 RMK A01 T00201040  RH  064%=      5-min Rain = 0
KST4 140440Z 01008KT 02/M04 A2999 RMK A01 T00201040  RH  064%=      5-min Rain = 0
KST4 140441Z 01008KT 02/M04 A2999 RMK A01 T00191040  RH  065%=      5-min Rain = 0
KST4 140442Z 01009KT 02/M04 A2999 RMK A01 T00191040  RH  065%=      5-min Rain = 0
KST4 140443Z 01008KT 02/M04 A2999 RMK A01 T00201040  RH  065%=      5-min Rain = 0
KST4 140444Z 01008KT 02/M04 A2998 RMK A01 T00221039  RH  064%=      5-min Rain = 0
KST4 140445Z 01008KT 02/M04 A2998 RMK A01 T00231039  RH  064%=      5-min Rain = 0
KST4 140446Z 01008KT 02/M04 A2998 RMK A01 T00241039  RH  063%=      5-min Rain = 0
KST4 140447Z 01008KT 02/M04 A2998 RMK A01 T00241039  RH  063%=      5-min Rain = 0
KST4 140448Z 01007KT 02/M04 A2998 RMK A01 T00241039  RH  063%=      5-min Rain = 0
KST4 140449Z 01007KT 03/M04 A2998 RMK A01 T00251039  RH  063%=      5-min Rain = 0
KST4 140450Z 01007KT 03/M04 A2998 RMK A01 T00251039  RH  063%=      5-min Rain = 0
KST4 140451Z 01007KT 03/M04 A2998 RMK A01 T00261039  RH  063%=      5-min Rain = 0
KST4 140452Z 01007KT 03/M04 A2998 RMK A01 T00261038  RH  062%=      5-min Rain = 0
KST4 140453Z 01007KT 03/M04 A2998 RMK A01 T00261039  RH  062%=      5-min Rain = 0
KST4 140454Z 01007KT 03/M04 A2998 RMK A01 T00271038  RH  062%=      5-min Rain = 0
KST4 140455Z 01007KT 03/M04 A2998 RMK A01 T00271039  RH  062%=      5-min Rain = 0
KST4 140456Z 01007KT 03/M04 A2998 RMK A01 T00271039  RH  062%=      5-min Rain = 0
KST4 140457Z 01007KT 03/M04 A2998 RMK A01 T00271038  RH  062%=      5-min Rain = 0
KST4 140458Z 01007KT 03/M04 A2998 RMK A01 T00271038  RH  062%=      5-min Rain = 0
KST4 140459Z 01007KT 03/M04 A2998 RMK A01 T00271039  RH  062%=      5-min Rain = 0
KST4 140500Z 01007KT 03/M04 A2998 RMK A01 T00281039  RH  062%=      5-min Rain = 0
KST4 140501Z 01007KT 03/M04 A2998 RMK A01 T00281039  RH  062%=      5-min Rain = 0
KST4 140502Z 01008KT 03/M04 A2998 RMK A01 T00281039  RH  062%=      5-min Rain = 0
KST4 140503Z 01007KT 03/M04 A2998 RMK A01 T00281039  RH  062%=      5-min Rain = 0
KST4 140504Z 00007KT 03/M04 A2999 RMK A01 T00281039  RH  062%=      5-min Rain = 0
KST4 140505Z 00007KT 03/M04 A2999 RMK A01 T00271039  RH  062%=      5-min Rain = 0
KST4 140506Z 00007KT 03/M04 A2999 RMK A01 T00271040  RH  062%=      5-min Rain = 0
KST4 140507Z 00007KT 03/M04 A2999 RMK A01 T00261040  RH  062%=      5-min Rain = 0
KST4 140508Z 00007KT 03/M04 A2999 RMK A01 T00251041  RH  062%=      5-min Rain = 0
KST4 140509Z 00007KT 03/M04 A2999 RMK A01 T00251042  RH  061%=      5-min Rain = 0
KST4 140510Z 00007KT 03/M04 A2999 RMK A01 T00261043  RH  060%=      5-min Rain = 0
KST4 140511Z 01007KT 03/M04 A2999 RMK A01 T00271044  RH  059%=      5-min Rain = 0
KST4 140512Z 01007KT 03/M05 A2999 RMK A01 T00281045  RH  058%=      5-min Rain = 0
KST4 140513Z 01007KT 03/M05 A2998 RMK A01 T00291046  RH  058%=      5-min Rain = 0
KST4 140514Z 01007KT 03/M05 A2998 RMK A01 T00301047  RH  057%=      5-min Rain = 0
KST4 140515Z 01007KT 03/M05 A2998 RMK A01 T00311047  RH  057%=      5-min Rain = 0
KST4 140516Z 01008KT 03/M05 A2998 RMK A01 T00311048  RH  056%=      5-min Rain = 0
KST4 140517Z 01008KT 03/M05 A2998 RMK A01 T00311049  RH  056%=      5-min Rain = 0
KST4 140518Z 01008KT 03/M05 A2998 RMK A01 T00311049  RH  056%=      5-min Rain = 0
KST4 140519Z 01007KT 03/M05 A2998 RMK A01 T00311050  RH  055%=      5-min Rain = 0
KST4 140520Z 01007KT 03/M05 A2998 RMK A01 T00311051  RH  055%=      5-min Rain = 0
KST4 140521Z 01007KT 03/M05 A2998 RMK A01 T00311051  RH  055%=      5-min Rain = 0
KST4 140522Z 01007KT 03/M05 A2998 RMK A01 T00301052  RH  055%=      5-min Rain = 0
KST4 140523Z 01007KT 03/M05 A2998 RMK A01 T00301052  RH  055%=      5-min Rain = 0
KST4 140524Z 01007KT 03/M05 A2998 RMK A01 T00301052  RH  055%=      5-min Rain = 0
KST4 140525Z 01007KT 03/M05 A2998 RMK A01 T00291053  RH  055%=      5-min Rain = 0
KST4 140526Z 01007KT 03/M05 A2998 RMK A01 T00291053  RH  055%=      5-min Rain = 0
KST4 140527Z 01007KT 03/M05 A2998 RMK A01 T00281054  RH  055%=      5-min Rain = 0
KST4 140528Z 01007KT 03/M05 A2998 RMK A01 T00281054  RH  055%=      5-min Rain = 0
KST4 140529Z 01007KT 03/M05 A2998 RMK A01 T00281054  RH  055%=      5-min Rain = 0
KST4 140530Z 01007KT 03/M05 A2998 RMK A01 T00281054  RH  055%=      5-min Rain = 0
KST4 140531Z 02007KT 03/M05 A2998 RMK A01 T00281054  RH  055%=      5-min Rain = 0
KST4 140532Z 02007KT 03/M06 A2998 RMK A01 T00281055  RH  054%=      5-min Rain = 0
KST4 140533Z 02007KT 03/M06 A2998 RMK A01 T00281056  RH  054%=      5-min Rain = 0
KST4 140534Z 02007KT 03/M06 A2998 RMK A01 T00281056  RH  054%=      5-min Rain = 0
KST4 140535Z 02007KT 03/M06 A2998 RMK A01 T00291057  RH  054%=      5-min Rain = 0
KST4 140536Z 02007KT 03/M06 A2998 RMK A01 T00291057  RH  053%=      5-min Rain = 0
KST4 140537Z 02007KT 03/M06 A2998 RMK A01 T00281057  RH  053%=      5-min Rain = 0
KST4 140538Z 02007KT 03/M06 A2998 RMK A01 T00281058  RH  053%=      5-min Rain = 0
KST4 140539Z 02007KT 03/M06 A2998 RMK A01 T00281058  RH  053%=      5-min Rain = 0
KST4 140540Z 02007KT 03/M06 A2998 RMK A01 T00281059  RH  053%=      5-min Rain = 0
KST4 140541Z 02007KT 03/M06 A2998 RMK A01 T00281059  RH  053%=      5-min Rain = 0
KST4 140542Z 02007KT 03/M06 A2998 RMK A01 T00291060  RH  052%=      5-min Rain = 0
KST4 140543Z 02007KT 03/M06 A2997 RMK A01 T00291060  RH  052%=      5-min Rain = 0
KST4 140544Z 02008KT 03/M06 A2997 RMK A01 T00291061  RH  052%=      5-min Rain = 0
KST4 140545Z 02008KT 03/M06 A2997 RMK A01 T00301061  RH  051%=      5-min Rain = 0
KST4 140546Z 02008KT 03/M06 A2997 RMK A01 T00301062  RH  051%=      5-min Rain = 0
KST4 140547Z 02008KT 03/M06 A2997 RMK A01 T00301062  RH  051%=      5-min Rain = 0
KST4 140548Z 02008KT 03/M06 A2996 RMK A01 T00301063  RH  050%=      5-min Rain = 0
KST4 140549Z 02008KT 03/M06 A2996 RMK A01 T00311062  RH  050%=      5-min Rain = 0
KST4 140550Z 02008KT 03/M06 A2996 RMK A01 T00311063  RH  050%=      5-min Rain = 0
KST4 140551Z 02008KT 03/M06 A2996 RMK A01 T00301063  RH  050%=      5-min Rain = 0
KST4 140552Z 02008KT 03/M06 A2996 RMK A01 T00301064  RH  050%=      5-min Rain = 0
KST4 140553Z 02008KT 03/M07 A2996 RMK A01 T00311065  RH  049%=      5-min Rain = 0
KST4 140554Z 02008KT 03/M07 A2996 RMK A01 T00311065  RH  049%=      5-min Rain = 0
KST4 140555Z 02008KT 03/M07 A2996 RMK A01 T00311066  RH  049%=      5-min Rain = 0
KST4 140556Z 02008KT 03/M07 A2996 RMK A01 T00311066  RH  049%=      5-min Rain = 0
KST4 140557Z 01008KT 03/M07 A2996 RMK A01 T00301067  RH  049%=      5-min Rain = 0
KST4 140558Z 02008KT 03/M07 A2996 RMK A01 T00291068  RH  049%=      5-min Rain = 0
KST4 140559Z 02008KT 03/M07 A2996 RMK A01 T00291068  RH  049%=      5-min Rain = 0

Page generated in 0.065 seconds.